FW6030 Weather Reports


time (UTC)temp
C
wind
direction
speed
KPH
gust
KPH
rain 1hr
cm
rain 24hr
cm
rain mn
cm
humidity
%
barometer
mb
20260906004233 34 360 14.5 25.7 0.00 0.00 0.00 48 1011.8
20260906004134 34 360 12.9 25.7 0.00 0.00 0.00 48 1011.8
20260906004034 34 360 11.3 27.4 0.00 0.00 0.00 48 1011.8
20260906003919 34 360 11.3 33.8 0.00 0.00 0.00 48 1011.8
20260906003819 34 360 12.9 33.8 0.00 0.00 0.00 48 1011.9
20260906003719 34 360 12.9 33.8 0.00 0.00 0.00 47 1011.8
20260906003620 34 360 12.9 33.8 0.00 0.00 0.00 47 1011.8
20260906003521 34 360 16.1 33.8 0.00 0.00 0.00 47 1011.8
20260906003422 34 360 16.1 33.8 0.00 0.00 0.00 47 1011.8
20260906003322 35 360 16.1 33.8 0.00 0.00 0.00 47 1011.8
20260906003227 35 360 14.5 33.8 0.00 0.00 0.00 47 1011.7
20260906003146 35 360 11.3 33.8 0.00 0.00 0.00 46 1011.8
20260906003026 35 360 6.4 14.5 0.00 0.00 0.00 45 1011.8
20260906002927 35 360 6.4 14.5 0.00 0.00 0.00 45 1011.8
20260906002829 35 360 6.4 14.5 0.00 0.00 0.00 45 1011.7
20260906002728 35 360 6.4 14.5 0.00 0.00 0.00 45 1011.7
20260906002628 35 360 8.0 14.5 0.00 0.00 0.00 45 1011.7
20260906002553 35 360 8.0 14.5 0.00 0.00 0.00 45 1011.7
20260906002433 35 360 8.0 14.5 0.00 0.00 0.00 44 1011.6
20260906002334 35 360 8.0 14.5 0.00 0.00 0.00 44 1011.7
20260906002234 35 360 6.4 12.9 0.00 0.00 0.00 44 1011.6
20260906002135 35 360 4.8 14.5 0.00 0.00 0.00 44 1011.7
20260906002034 35 360 4.8 14.5 0.00 0.00 0.00 44 1011.6
20260906001919 35 360 4.8 14.5 0.00 0.00 0.00 45 1011.7
20260906001819 35 148 6.4 14.5 0.00 0.00 0.00 46 1011.7
20260906001739 35 360 8.0 14.5 0.00 0.00 0.00 45 1011.7
20260906001619 35 360 8.0 14.5 0.00 0.00 0.00 44 1011.6
20260906001519 35 360 9.7 14.5 0.00 0.00 0.00 45 1011.7
20260906001419 35 360 9.7 14.5 0.00 0.00 0.00 45 1011.7
20260906001340 35 360 9.7 14.5 0.00 0.00 0.00 44 1011.8
20260906001220 35 360 8.0 14.5 0.00 0.00 0.00 45 1011.7
20260906001125 35 360 8.0 12.9 0.00 0.00 0.00 44 1011.7
20260906001025 35 360 8.0 12.9 0.00 0.00 0.00 45 1011.7
20260906000925 35 360 8.0 12.9 0.00 0.00 0.00 44 1011.7
20260906000826 35 360 6.4 14.5 0.00 0.00 0.00 45 1011.6
20260906000727 35 360 6.4 14.5 0.00 0.00 0.00 45 1011.7
20260906000628 35 360 6.4 14.5 0.00 0.00 0.00 45 1011.7
20260906000549 35 360 6.4 14.5 0.00 0.00 0.00 45 1011.7
20260906000434 35 360 6.4 14.5 0.00 0.00 0.00 45 1011.7
20260906000333 35 360 6.4 14.5 0.00 0.00 0.00 45 1011.7
20260906000234 35 360 6.4 14.5 0.00 0.00 0.00 45 1011.6
20260906000134 35 126 8.0 16.1 0.00 0.00 0.00 45 1011.6
20260906000034 35 360 9.7 16.1 0.00 0.00 0.00 45 1011.6
20260905235935 35 360 8.0 16.1 0.00 0.00 0.00 45 1011.6
20260905235820 35 360 8.0 16.1 0.00 0.00 0.00 45 1011.7
20260905235720 35 360 8.0 16.1 0.00 0.00 0.00 45 1011.6
20260905235621 35 360 8.0 16.1 0.00 0.00 0.00 45 1011.7
20260905235522 35 360 9.7 16.1 0.00 0.00 0.00 45 1011.7
20260905235422 35 360 8.0 16.1 0.00 0.00 0.00 45 1011.6
20260905235323 35 360 8.0 16.1 0.00 0.00 0.00 46 1011.6
20260905235244 35 360 6.4 16.1 0.00 0.00 0.00 46 1011.7
20260905235127 35 360 4.8 12.9 0.00 0.00 0.00 46 1011.7
20260905235028 35 360 6.4 12.9 0.00 0.00 0.00 46 1011.7
20260905234929 35 360 6.4 14.5 0.00 0.00 0.00 46 1011.6
20260905234849 35 360 6.4 16.1 0.00 0.00 0.00 45 1011.7
20260905234729 35 360 6.4 16.1 0.00 0.00 0.00 45 1011.7
20260905234631 35 360 6.4 16.1 0.00 0.00 0.00 45 1011.6
20260905234531 35 360 8.0 16.1 0.00 0.00 0.00 45 1011.6
20260905234416 35 360 8.0 16.1 0.00 0.00 0.00 45 1011.6
20260905234316 35 360 9.7 16.1 0.00 0.00 0.00 45 1011.6
20260905234217 35 360 9.7 16.1 0.00 0.00 0.00 45 1011.7
20260905234117 35 360 8.0 16.1 0.00 0.00 0.00 45 1011.6
20260905234018 35 360 8.0 16.1 0.00 0.00 0.00 45 1011.6
20260905233917 35 360 8.0 16.1 0.00 0.00 0.00 45 1011.6
20260905233822 35 360 9.7 16.1 0.00 0.00 0.00 45 1011.7
20260905233721 35 360 9.7 16.1 0.00 0.00 0.00 44 1011.7
20260905233622 35 360 9.7 17.7 0.00 0.00 0.00 44 1011.7
20260905233543 35 360 9.7 17.7 0.00 0.00 0.00 44 1011.7
20260905233442 35 360 11.3 17.7 0.00 0.00 0.00 44 1011.6
20260905233322 35 360 9.7 17.7 0.00 0.00 0.00 44 1011.7
20260905233242 35 360 9.7 17.7 0.00 0.00 0.00 44 1011.6
20260905233123 35 360 9.7 17.7 0.00 0.00 0.00 44 1011.6
20260905233023 35 360 9.7 17.7 0.00 0.00 0.00 43 1011.6
20260905232948 35 360 9.7 17.7 0.00 0.00 0.00 43 1011.5
20260905232845 35 360 11.3 17.7 0.00 0.00 0.00 43 1011.7
20260905232722 35 360 11.3 17.7 0.00 0.00 0.00 43 1011.6
20260905232623 35 360 11.3 17.7 0.00 0.00 0.00 42 1011.5
20260905232524 35 360 9.7 17.7 0.00 0.00 0.00 43 1011.6
20260905232424 35 360 8.0 17.7 0.00 0.00 0.00 43 1011.6
20260905232325 35 360 8.0 17.7 0.00 0.00 0.00 43 1011.6
20260905232225 35 360 8.0 17.7 0.00 0.00 0.00 43 1011.6
20260905232130 35 360 9.7 17.7 0.00 0.00 0.00 42 1011.6
20260905232030 35 73 9.7 17.7 0.00 0.00 0.00 42 1011.6
20260905231930 36 360 8.0 17.7 0.00 0.00 0.00 41 1011.6
20260905231831 36 86 9.7 17.7 0.00 0.00 0.00 41 1011.6
20260905231732 36 360 9.7 17.7 0.00 0.00 0.00 42 1011.6
20260905231652 36 360 9.7 17.7 0.00 0.00 0.00 42 1011.7
20260905231531 36 360 9.7 17.7 0.00 0.00 0.00 42 1011.7
20260905231456 36 360 6.4 14.5 0.00 0.00 0.00 42 1011.7
20260905231336 35 360 4.8 12.9 0.00 0.00 0.00 42 1011.7
20260905231235 35 360 4.8 9.7 0.00 0.00 0.00 42 1011.6
20260905231136 35 360 4.8 9.7 0.00 0.00 0.00 41 1011.6
20260905231017 35 360 6.4 9.7 0.00 0.00 0.00 41 1011.7
20260905230918 35 360 6.4 16.1 0.00 0.00 0.00 41 1011.7
20260905230818 35 360 8.0 16.1 0.00 0.00 0.00 41 1011.6
20260905230723 36 360 6.4 16.1 0.00 0.00 0.00 41 1011.6
20260905230626 36 99 6.4 16.1 0.00 0.00 0.00 41 1011.6
20260905230526 36 360 6.4 16.1 0.00 0.00 0.00 41 1011.6
20260905230426 36 360 8.0 16.1 0.00 0.00 0.00 41 1011.6
20260905230326 36 360 8.0 16.1 0.00 0.00 0.00 41 1011.6
20260905230227 36 360 8.0 16.1 0.00 0.00 0.00 41 1011.6
20260905230128 36 360 6.4 14.5 0.00 0.00 0.00 41 1011.6
20260905230031 36 360 6.4 9.7 0.00 0.00 0.00 41 1011.6
20260905225932 36 360 4.8 16.1 0.00 0.00 0.00 41 1011.6
20260905225854 36 360 4.8 16.1 0.00 0.00 0.00 41 1011.6
20260905225732 36 360 4.8 16.1 0.00 0.00 0.00 41 1011.6
20260905225633 36 360 4.8 16.1 0.00 0.00 0.00 40 1011.6
20260905225533 36 140 4.8 16.1 0.00 0.00 0.00 40 1011.5
20260905225417 36 360 6.4 16.1 0.00 0.00 0.00 40 1011.6
20260905225318 36 360 8.0 16.1 0.00 0.00 0.00 40 1011.6
20260905225219 36 360 8.0 16.1 0.00 0.00 0.00 40 1011.5
20260905225119 36 360 8.0 16.1 0.00 0.00 0.00 40 1011.6
20260905225019 36 360 6.4 12.9 0.00 0.00 0.00 40 1011.6
20260905224919 36 360 4.8 9.7 0.00 0.00 0.00 40 1011.6
20260905224819 36 360 4.8 9.7 0.00 0.00 0.00 40 1011.6
20260905224725 36 360 3.2 9.7 0.00 0.00 0.00 40 1011.6
20260905224624 36 360 1.6 8.0 0.00 0.00 0.00 40 1011.6
20260905224524 36 360 1.6 6.4 0.00 0.00 0.00 40 1011.5
20260905224425 35 360 3.2 6.4 0.00 0.00 0.00 40 1011.6
20260905224324 35 87 3.2 6.4 0.00 0.00 0.00 40 1011.6
20260905224225 35 88 4.8 8.0 0.00 0.00 0.00 40 1011.6
20260905224126 35 86 4.8 8.0 0.00 0.00 0.00 40 1011.6
20260905224031 35 87 4.8 9.7 0.00 0.00 0.00 40 1011.5
20260905223932 35 89 4.8 9.7 0.00 0.00 0.00 40 1011.5
20260905223832 35 360 3.2 9.7 0.00 0.00 0.00 40 1011.5
20260905223733 35 360 3.2 9.7 0.00 0.00 0.00 40 1011.5
20260905223632 35 112 4.8 9.7 0.00 0.00 0.00 40 1011.6
20260905223533 35 360 4.8 12.9 0.00 0.00 0.00 39 1011.4
20260905223417 36 113 6.4 12.9 0.00 0.00 0.00 40 1011.5
20260905223317 36 114 6.4 12.9 0.00 0.00 0.00 39 1011.5
20260905223218 36 360 6.4 12.9 0.00 0.00 0.00 40 1011.5
20260905223119 36 360 4.8 12.9 0.00 0.00 0.00 39 1011.5
20260905223020 36 360 3.2 12.9 0.00 0.00 0.00 39 1011.6
20260905222920 36 360 3.2 12.9 0.00 0.00 0.00 39 1011.6
20260905222822 36 360 3.2 12.9 0.00 0.00 0.00 39 1011.6
20260905222745 36 121 4.8 12.9 0.00 0.00 0.00 39 1011.7
20260905222625 36 360 6.4 12.9 0.00 0.00 0.00 40 1011.7
20260905222526 36 86 6.4 12.9 0.00 0.00 0.00 40 1011.6
20260905222425 36 360 4.8 9.7 0.00 0.00 0.00 40 1011.6
20260905222326 36 360 4.8 9.7 0.00 0.00 0.00 39 1011.5
20260905222227 36 360 3.2 12.9 0.00 0.00 0.00 39 1011.6
20260905222127 36 360 3.2 12.9 0.00 0.00 0.00 40 1011.6
20260905222031 36 360 3.2 12.9 0.00 0.00 0.00 39 1011.7
20260905221952 36 360 3.2 12.9 0.00 0.00 0.00 39 1011.7
20260905221830 36 360 4.8 12.9 0.00 0.00 0.00 39 1011.6
20260905221731 36 360 6.4 12.9 0.00 0.00 0.00 39 1011.7
20260905221632 36 360 6.4 12.9 0.00 0.00 0.00 39 1011.7
20260905221533 36 360 6.4 12.9 0.00 0.00 0.00 39 1011.7
20260905221433 36 360 4.8 12.9 0.00 0.00 0.00 39 1011.8
20260905221318 36 360 3.2 8.0 0.00 0.00 0.00 38 1011.7
20260905221219 36 360 3.2 8.0 0.00 0.00 0.00 38 1011.7
20260905221120 36 360 3.2 8.0 0.00 0.00 0.00 38 1011.8
20260905221021 36 360 3.2 8.0 0.00 0.00 0.00 39 1011.8
20260905220921 37 360 3.2 12.9 0.00 0.00 0.00 39 1011.8
20260905220821 37 360 3.2 12.9 0.00 0.00 0.00 39 1011.7
20260905220725 36 360 3.2 12.9 0.00 0.00 0.00 39 1011.7
20260905220626 36 360 4.8 12.9 0.00 0.00 0.00 39 1011.9
20260905220527 36 360 4.8 12.9 0.00 0.00 0.00 40 1011.8
20260905220446 36 360 4.8 12.9 0.00 0.00 0.00 40 1011.7
20260905220326 36 360 6.4 12.9 0.00 0.00 0.00 40 1011.8
20260905220226 36 360 6.4 12.9 0.00 0.00 0.00 39 1011.8
20260905220127 36 360 6.4 12.9 0.00 0.00 0.00 40 1011.8
20260905220032 36 360 3.2 12.9 0.00 0.00 0.00 39 1011.8
20260905215932 36 360 3.2 12.9 0.00 0.00 0.00 39 1011.8
20260905215835 36 360 4.8 14.5 0.00 0.00 0.00 39 1011.8
20260905215735 36 360 4.8 14.5 0.00 0.00 0.00 39 1011.8
20260905215636 36 360 4.8 14.5 0.00 0.00 0.00 39 1011.8
20260905215535 36 360 3.2 19.3 0.00 0.00 0.00 40 1011.8
20260905215435 36 360 4.8 19.3 0.00 0.00 0.00 40 1011.8
20260905215319 36 360 6.4 19.3 0.00 0.00 0.00 40 1011.8
20260905215220 36 360 8.0 19.3 0.00 0.00 0.00 39 1011.9
20260905215120 36 360 9.7 19.3 0.00 0.00 0.00 40 1011.8
20260905215021 36 360 9.7 19.3 0.00 0.00 0.00 40 1011.9
20260905214921 36 360 12.9 19.3 0.00 0.00 0.00 40 1011.9
20260905214821 36 360 14.5 19.3 0.00 0.00 0.00 39 1011.9
20260905214719 36 360 14.5 19.3 0.00 0.00 0.00 39 1011.9
20260905214624 36 360 12.9 19.3 0.00 0.00 0.00 39 1011.8
20260905214524 36 360 9.7 16.1 0.00 0.00 0.00 39 1011.9
20260905214425 37 360 8.0 12.9 0.00 0.00 0.00 38 1011.8
20260905214326 37 360 6.4 9.7 0.00 0.00 0.00 38 1011.8
20260905214226 37 360 4.8 9.7 0.00 0.00 0.00 38 1011.8
20260905214127 37 360 3.2 9.7 0.00 0.00 0.00 38 1011.9
20260905214028 37 360 1.6 9.7 0.00 0.00 0.00 38 1011.8
20260905213931 37 360 3.2 9.7 0.00 0.00 0.00 39 1011.8
20260905213831 36 360 3.2 9.7 0.00 0.00 0.00 39 1011.9
20260905213731 36 360 3.2 9.7 0.00 0.00 0.00 39 1011.8
20260905213652 36 360 4.8 8.0 0.00 0.00 0.00 39 1011.9
20260905213552 36 360 4.8 8.0 0.00 0.00 0.00 39 1011.9
20260905213451 36 360 3.2 12.9 0.00 0.00 0.00 39 1011.9
20260905213331 36 360 3.2 12.9 0.00 0.00 0.00 39 1011.9
20260905213232 36 360 3.2 12.9 0.00 0.00 0.00 39 1011.9
20260905213117 36 360 3.2 12.9 0.00 0.00 0.00 39 1011.9
20260905213017 36 360 4.8 17.7 0.00 0.00 0.00 39 1011.8
20260905212919 36 360 4.8 17.7 0.00 0.00 0.00 39 1011.9
20260905212819 36 360 6.4 17.7 0.00 0.00 0.00 39 1011.9
20260905212739 36 360 6.4 17.7 0.00 0.00 0.00 39 1011.9
20260905212617 36 360 4.8 17.7 0.00 0.00 0.00 40 1011.8
20260905212537 36 360 4.8 17.7 0.00 0.00 0.00 40 1011.9
20260905212417 36 360 8.0 17.7 0.00 0.00 0.00 40 1011.9
20260905212320 36 360 9.7 17.7 0.00 0.00 0.00 40 1011.8
20260905212220 36 360 9.7 17.7 0.00 0.00 0.00 39 1011.9
20260905212118 36 360 6.4 19.3 0.00 0.00 0.00 40 1011.9
20260905212018 36 360 6.4 19.3 0.00 0.00 0.00 39 1011.8
20260905211938 36 107 8.0 22.5 0.00 0.00 0.00 40 1011.9
20260905211857 36 360 9.7 22.5 0.00 0.00 0.00 40 1011.9
20260905211736 36 360 9.7 22.5 0.00 0.00 0.00 39 1011.9
20260905211621 36 360 8.0 22.5 0.00 0.00 0.00 40 1011.9
20260905211521 36 360 4.8 22.5 0.00 0.00 0.00 41 1012.0
20260905211422 35 360 6.4 22.5 0.00 0.00 0.00 41 1011.9
20260905211322 35 360 9.7 22.5 0.00 0.00 0.00 41 1012.0
20260905211223 35 360 11.3 22.5 0.00 0.00 0.00 41 1012.1
20260905211123 36 360 11.3 22.5 0.00 0.00 0.00 41 1012.0
20260905211024 36 360 9.7 17.7 0.00 0.00 0.00 40 1012.1
20260905210929 36 360 8.0 20.9 0.00 0.00 0.00 40 1012.1
20260905210849 36 360 6.4 20.9 0.00 0.00 0.00 40 1012.1
20260905210727 36 360 4.8 20.9 0.00 0.00 0.00 40 1012.0
20260905210628 36 360 4.8 20.9 0.00 0.00 0.00 41 1012.0
20260905210528 36 360 4.8 20.9 0.00 0.00 0.00 41 1012.0
20260905210430 36 360 6.4 20.9 0.00 0.00 0.00 41 1012.0
20260905210330 36 360 4.8 20.9 0.00 0.00 0.00 41 1012.0
20260905210216 36 360 4.8 20.9 0.00 0.00 0.00 41 1012.1
20260905210116 36 360 6.4 20.9 0.00 0.00 0.00 41 1012.1
20260905210017 36 360 6.4 20.9 0.00 0.00 0.00 41 1012.1
20260905205917 36 360 6.4 17.7 0.00 0.00 0.00 41 1012.1
20260905205818 36 360 8.0 17.7 0.00 0.00 0.00 42 1012.1
20260905205718 36 360 8.0 24.1 0.00 0.00 0.00 41 1012.1
20260905205619 36 360 6.4 24.1 0.00 0.00 0.00 41 1012.1
20260905205523 36 360 4.8 24.1 0.00 0.00 0.00 41 1012.1
20260905205423 36 360 3.2 24.1 0.00 0.00 0.00 42 1012.1
20260905205323 36 360 6.4 24.1 0.00 0.00 0.00 41 1012.2
20260905205225 36 360 6.4 24.1 0.00 0.00 0.00 42 1012.3
20260905205126 36 360 9.7 24.1 0.00 0.00 0.00 41 1012.3
20260905205026 35 360 11.3 24.1 0.00 0.00 0.00 42 1012.3
20260905204946 36 360 9.7 24.1 0.00 0.00 0.00 41 1012.3
20260905204849 36 360 6.4 24.1 0.00 0.00 0.00 41 1012.3
20260905204749 36 360 4.8 12.9 0.00 0.00 0.00 42 1012.3
20260905204629 36 360 4.8 12.9 0.00 0.00 0.00 42 1012.4
20260905204549 36 360 6.4 16.1 0.00 0.00 0.00 42 1012.4
20260905204428 36 360 6.4 16.1 0.00 0.00 0.00 41 1012.4
20260905204328 36 360 6.4 16.1 0.00 0.00 0.00 42 1012.4
20260905204228 36 360 4.8 19.3 0.00 0.00 0.00 42 1012.5
20260905204149 36 360 3.2 19.3 0.00 0.00 0.00 42 1012.5
20260905204028 36 360 3.2 19.3 0.00 0.00 0.00 42 1012.5
20260905203932 35 360 4.8 22.5 0.00 0.00 0.00 42 1012.5
20260905203833 35 360 8.0 22.5 0.00 0.00 0.00 42 1012.5
20260905203733 35 360 8.0 22.5 0.00 0.00 0.00 42 1012.5
20260905203633 35 360 8.0 22.5 0.00 0.00 0.00 42 1012.6
20260905203534 35 360 9.7 22.5 0.00 0.00 0.00 43 1012.5
20260905203454 35 360 11.3 22.5 0.00 0.00 0.00 43 1012.5
20260905203354 35 360 14.5 22.5 0.00 0.00 0.00 42 1012.6
20260905203217 36 360 11.3 22.5 0.00 0.00 0.00 42 1012.6
20260905203137 36 360 8.0 22.5 0.00 0.00 0.00 41 1012.7
20260905203037 36 360 4.8 17.7 0.00 0.00 0.00 42 1012.7
20260905202916 36 360 4.8 17.7 0.00 0.00 0.00 42 1012.6
20260905202818 36 360 6.4 17.7 0.00 0.00 0.00 42 1012.7
20260905202717 36 360 6.4 17.7 0.00 0.00 0.00 42 1012.7
20260905202618 36 360 6.4 17.7 0.00 0.00 0.00 42 1012.8
20260905202523 36 360 6.4 17.7 0.00 0.00 0.00 42 1012.8
20260905202423 36 360 6.4 17.7 0.00 0.00 0.00 43 1012.7
20260905202325 36 132 8.0 17.7 0.00 0.00 0.00 42 1012.8
20260905202225 36 360 9.7 17.7 0.00 0.00 0.00 42 1012.8
20260905202125 36 360 9.7 17.7 0.00 0.00 0.00 41 1012.9
20260905202026 36 360 8.0 17.7 0.00 0.00 0.00 41 1012.8
20260905201926 36 360 6.4 17.7 0.00 0.00 0.00 42 1012.9
20260905201831 36 360 4.8 12.9 0.00 0.00 0.00 41 1012.8
20260905201731 36 360 4.8 12.9 0.00 0.00 0.00 41 1012.8
20260905201631 37 360 3.2 9.7 0.00 0.00 0.00 41 1012.9
20260905201532 37 360 3.2 9.7 0.00 0.00 0.00 41 1012.8
20260905201433 37 360 3.2 9.7 0.00 0.00 0.00 40 1012.9
20260905201334 37 360 1.6 14.5 0.00 0.00 0.00 40 1012.9
20260905201218 37 360 1.6 14.5 0.00 0.00 0.00 40 1012.8
20260905201119 36 360 1.6 14.5 0.00 0.00 0.00 40 1012.9
20260905201019 36 360 1.6 14.5 0.00 0.00 0.00 41 1013.0
20260905200920 36 360 1.6 14.5 0.00 0.00 0.00 40 1013.0
20260905200820 36 360 3.2 14.5 0.00 0.00 0.00 41 1013.1
20260905200720 36 360 4.8 14.5 0.00 0.00 0.00 42 1013.0
20260905200625 36 360 6.4 14.5 0.00 0.00 0.00 41 1013.1
20260905200526 36 360 6.4 14.5 0.00 0.00 0.00 41 1013.1
20260905200426 36 360 6.4 20.9 0.00 0.00 0.00 41 1013.1
20260905200327 36 360 4.8 20.9 0.00 0.00 0.00 42 1013.1
20260905200228 36 360 3.2 20.9 0.00 0.00 0.00 42 1013.1
20260905200149 36 360 4.8 20.9 0.00 0.00 0.00 42 1013.1
20260905200028 36 360 4.8 20.9 0.00 0.00 0.00 42 1013.1
20260905195933 36 360 6.4 20.9 0.00 0.00 0.00 42 1013.1
20260905195854 36 360 9.7 20.9 0.00 0.00 0.00 42 1013.2
20260905195732 36 360 9.7 20.9 0.00 0.00 0.00 42 1013.2
20260905195632 36 360 11.3 20.9 0.00 0.00 0.00 42 1013.2
20260905195533 36 360 11.3 20.9 0.00 0.00 0.00 42 1013.2
20260905195433 36 360 8.0 17.7 0.00 0.00 0.00 41 1013.2
20260905195334 36 360 8.0 17.7 0.00 0.00 0.00 41 1013.3
20260905195218 36 360 6.4 19.3 0.00 0.00 0.00 42 1013.3
20260905195119 36 360 4.8 19.3 0.00 0.00 0.00 42 1013.3
20260905195039 36 360 4.8 19.3 0.00 0.00 0.00 42 1013.3
20260905194918 36 360 4.8 19.3 0.00 0.00 0.00 43 1013.3
20260905194819 35 360 6.4 19.3 0.00 0.00 0.00 42 1013.3
20260905194719 36 360 6.4 19.3 0.00 0.00 0.00 42 1013.4
20260905194619 36 360 6.4 19.3 0.00 0.00 0.00 42 1013.3
20260905194524 36 360 6.4 19.3 0.00 0.00 0.00 42 1013.4
20260905194425 36 360 4.8 19.3 0.00 0.00 0.00 42 1013.4
20260905194325 36 360 4.8 16.1 0.00 0.00 0.00 42 1013.4
20260905194226 36 360 4.8 16.1 0.00 0.00 0.00 42 1013.4
20260905194128 36 360 4.8 16.1 0.00 0.00 0.00 42 1013.4
20260905194029 36 360 4.8 16.1 0.00 0.00 0.00 42 1013.4
20260905193929 36 360 6.4 16.1 0.00 0.00 0.00 42 1013.4
20260905193854 36 360 4.8 16.1 0.00 0.00 0.00 43 1013.4
20260905193732 36 360 4.8 14.5 0.00 0.00 0.00 43 1013.5
20260905193653 36 360 4.8 14.5 0.00 0.00 0.00 42 1013.5
20260905193533 36 360 4.8 14.5 0.00 0.00 0.00 43 1013.5
20260905193433 35 360 4.8 14.5 0.00 0.00 0.00 43 1013.4
20260905193355 35 360 6.4 14.5 0.00 0.00 0.00 44 1013.5
20260905193234 35 360 8.0 14.5 0.00 0.00 0.00 45 1013.5
20260905193118 35 360 8.0 14.5 0.00 0.00 0.00 43 1013.7
20260905193020 36 360 8.0 14.5 0.00 0.00 0.00 43 1013.7
20260905192921 36 360 8.0 14.5 0.00 0.00 0.00 43 1013.6
20260905192843 36 360 6.4 14.5 0.00 0.00 0.00 43 1013.7
20260905192721 36 360 6.4 16.1 0.00 0.00 0.00 43 1013.7
20260905192640 36 360 4.8 16.1 0.00 0.00 0.00 44 1013.7
20260905192520 36 360 3.2 16.1 0.00 0.00 0.00 44 1013.8
20260905192440 36 360 4.8 16.1 0.00 0.00 0.00 43 1013.7
20260905192324 36 360 4.8 16.1 0.00 0.00 0.00 43 1013.8
20260905192225 36 360 4.8 16.1 0.00 0.00 0.00 43 1013.8
20260905192124 36 360 4.8 16.1 0.00 0.00 0.00 44 1013.7
20260905192025 36 360 4.8 16.1 0.00 0.00 0.00 42 1013.8
20260905191925 36 360 4.8 16.1 0.00 0.00 0.00 42 1013.8
20260905191826 36 159 4.8 9.7 0.00 0.00 0.00 42 1013.8
20260905191725 36 360 3.2 9.7 0.00 0.00 0.00 42 1013.9
20260905191629 36 360 3.2 9.7 0.00 0.00 0.00 43 1013.9
20260905191530 36 360 1.6 9.7 0.00 0.00 0.00 44 1013.9
20260905191450 35 360 1.6 9.7 0.00 0.00 0.00 44 1013.9
20260905191330 35 360 3.2 9.7 0.00 0.00 0.00 44 1013.9
20260905191231 35 360 4.8 16.1 0.00 0.00 0.00 44 1013.9
20260905191132 35 103 4.8 16.1 0.00 0.00 0.00 44 1013.9
20260905191052 35 360 4.8 16.1 0.00 0.00 0.00 44 1013.9
20260905190931 35 360 3.2 16.1 0.00 0.00 0.00 44 1013.9
20260905190835 35 360 3.2 16.1 0.00 0.00 0.00 45 1013.9
20260905190735 35 360 3.2 16.1 0.00 0.00 0.00 45 1014.0
20260905190616 35 360 4.8 20.9 0.00 0.00 0.00 46 1014.0
20260905190517 35 360 6.4 20.9 0.00 0.00 0.00 46 1014.0
20260905190437 34 360 8.0 20.9 0.00 0.00 0.00 45 1014.0
20260905190338 34 360 8.0 20.9 0.00 0.00 0.00 46 1014.0
20260905190237 34 360 9.7 20.9 0.00 0.00 0.00 46 1014.1
20260905190119 34 360 12.9 20.9 0.00 0.00 0.00 46 1014.0
20260905190018 34 360 12.9 20.9 0.00 0.00 0.00 46 1014.1
20260905185919 34 360 14.5 20.9 0.00 0.00 0.00 46 1014.1
20260905185821 35 360 12.9 20.9 0.00 0.00 0.00 46 1014.2
20260905185719 35 360 9.7 17.7 0.00 0.00 0.00 45 1014.1
20260905185619 35 360 8.0 17.7 0.00 0.00 0.00 46 1014.2
20260905185521 35 360 6.4 16.1 0.00 0.00 0.00 46 1014.1
20260905185425 35 360 6.4 16.1 0.00 0.00 0.00 45 1014.1
20260905185325 35 360 6.4 16.1 0.00 0.00 0.00 45 1014.2
20260905185227 35 360 8.0 16.1 0.00 0.00 0.00 45 1014.2
20260905185127 35 360 6.4 16.1 0.00 0.00 0.00 45 1014.3
20260905185028 36 360 6.4 16.1 0.00 0.00 0.00 45 1014.3
20260905184929 36 360 4.8 16.1 0.00 0.00 0.00 45 1014.3
20260905184829 35 360 6.4 16.1 0.00 0.00 0.00 45 1014.3
20260905184734 35 360 8.0 19.3 0.00 0.00 0.00 45 1014.3
20260905184634 35 360 8.0 19.3 0.00 0.00 0.00 46 1014.3
20260905184516 35 360 6.4 19.3 0.00 0.00 0.00 45 1014.3
20260905184437 35 360 6.4 19.3 0.00 0.00 0.00 45 1014.3
20260905184317 36 360 6.4 19.3 0.00 0.00 0.00 45 1014.3
20260905184217 36 360 6.4 19.3 0.00 0.00 0.00 45 1014.4
20260905184122 36 360 6.4 19.3 0.00 0.00 0.00 46 1014.4
20260905184022 35 360 4.8 19.3 0.00 0.00 0.00 45 1014.5
20260905183922 35 360 4.8 19.3 0.00 0.00 0.00 45 1014.6
20260905183823 35 360 3.2 17.7 0.00 0.00 0.00 46 1014.5
20260905183744 35 360 3.2 20.9 0.00 0.00 0.00 47 1014.7
20260905183624 35 360 4.8 20.9 0.00 0.00 0.00 46 1014.7
20260905183546 35 360 4.8 20.9 0.00 0.00 0.00 47 1014.7
20260905183445 35 360 4.8 20.9 0.00 0.00 0.00 47 1014.8
20260905183327 35 360 4.8 20.9 0.00 0.00 0.00 47 1014.8
20260905183228 35 360 6.4 20.9 0.00 0.00 0.00 46 1014.8
20260905183129 34 360 8.0 20.9 0.00 0.00 0.00 46 1014.7
20260905183029 35 360 11.3 20.9 0.00 0.00 0.00 46 1014.8
20260905182929 35 360 11.3 20.9 0.00 0.00 0.00 45 1014.8
20260905182832 35 360 6.4 20.9 0.00 0.00 0.00 45 1014.8
20260905182751 35 360 6.4 17.7 0.00 0.00 0.00 45 1014.8
20260905182652 35 360 8.0 17.7 0.00 0.00 0.00 46 1014.8
20260905182535 35 360 6.4 17.7 0.00 0.00 0.00 45 1015.0
20260905182456 35 360 4.8 17.7 0.00 0.00 0.00 46 1014.8
20260905182355 35 360 1.6 12.9 0.00 0.00 0.00 46 1014.9
20260905182233 35 360 3.2 12.9 0.00 0.00 0.00 46 1014.9
20260905182134 35 360 4.8 19.3 0.00 0.00 0.00 45 1014.9
20260905182035 35 360 4.8 19.3 0.00 0.00 0.00 45 1015.0
20260905181916 34 58 4.8 19.3 0.00 0.00 0.00 46 1015.0
20260905181820 34 11 6.4 19.3 0.00 0.00 0.00 45 1015.0
20260905181721 34 23 6.4 19.3 0.00 0.00 0.00 45 1015.0
20260905181619 34 360 6.4 19.3 0.00 0.00 0.00 46 1015.0
20260905181520 34 360 8.0 20.9 0.00 0.00 0.00 46 1015.0
20260905181420 34 360 6.4 20.9 0.00 0.00 0.00 46 1015.0
20260905181321 34 360 8.0 20.9 0.00 0.00 0.00 47 1015.1
20260905181220 34 360 8.0 20.9 0.00 0.00 0.00 48 1015.1
20260905181125 34 360 9.7 20.9 0.00 0.00 0.00 47 1015.1
20260905181040 33 360 11.3 24.1 0.00 0.00 0.00 47 1015.1
20260905180919 34 360 11.3 24.1 0.00 0.00 0.00 48 1015.2
20260905180821 33 360 11.3 24.1 0.00 0.00 0.00 48 1015.2
20260905180721 33 360 11.3 24.1 0.00 0.00 0.00 48 1015.2
20260905180623 33 360 11.3 25.7 0.00 0.00 0.00 48 1015.3
20260905180523 33 360 12.9 25.7 0.00 0.00 0.00 48 1015.3
20260905180428 33 360 12.9 25.7 0.00 0.00 0.00 48 1015.3
20260905180327 33 360 14.5 25.7 0.00 0.00 0.00 48 1015.3
20260905180228 33 360 16.1 25.7 0.00 0.00 0.00 49 1015.3
20260905180129 33 360 16.1 25.7 0.00 0.00 0.00 49 1015.4
20260905180050 33 165 17.7 25.7 0.00 0.00 0.00 47 1015.3
20260905175930 34 360 19.3 25.7 0.00 0.00 0.00 48 1015.3
20260905175832 34 360 16.1 25.7 0.00 0.00 0.00 48 1015.3
20260905175734 35 360 11.3 25.7 0.00 0.00 0.00 47 1015.3
20260905175635 35 360 4.8 22.5 0.00 0.00 0.00 52 1015.3
20260905175535 35 360 1.6 22.5 0.00 0.00 0.00 52 1015.3
20260905175416 33 360 1.6 22.5 0.00 0.00 0.00 52 1015.4
20260905175317 33 173 3.2 22.5 0.00 0.00 0.00 53 1015.4
20260905175217 33 360 4.8 22.5 0.00 0.00 0.00 53 1015.4
20260905175139 33 360 8.0 22.5 0.00 0.00 0.00 53 1015.4
20260905175023 33 172 8.0 22.5 0.00 0.00 0.00 53 1015.5
20260905174923 33 360 8.0 22.5 0.00 0.00 0.00 54 1015.5
20260905174824 33 360 8.0 22.5 0.00 0.00 0.00 53 1015.5
20260905174724 33 360 9.7 22.5 0.00 0.00 0.00 53 1015.5
20260905174625 33 360 9.7 22.5 0.00 0.00 0.00 53 1015.5
20260905174526 33 360 8.0 22.5 0.00 0.00 0.00 53 1015.5
20260905174431 33 360 6.4 20.9 0.00 0.00 0.00 52 1015.5
20260905174331 33 360 6.4 20.9 0.00 0.00 0.00 52 1015.6
20260905174231 33 360 8.0 20.9 0.00 0.00 0.00 52 1015.5
20260905174132 33 360 9.7 20.9 0.00 0.00 0.00 52 1015.6
20260905174033 33 360 11.3 27.4 0.00 0.00 0.00 52 1015.6
20260905173933 33 360 12.9 27.4 0.00 0.00 0.00 53 1015.6
20260905173818 33 360 14.5 27.4 0.00 0.00 0.00 53 1015.6
20260905173716 33 360 16.1 27.4 0.00 0.00 0.00 53 1015.6
20260905173617 33 360 12.9 27.4 0.00 0.00 0.00 52 1015.6
20260905173538 33 360 12.9 27.4 0.00 0.00 0.00 53 1015.7
20260905173437 33 360 16.1 27.4 0.00 0.00 0.00 53 1015.7
20260905173316 33 360 17.7 27.4 0.00 0.00 0.00 53 1015.6
20260905173216 33 360 14.5 27.4 0.00 0.00 0.00 53 1015.7
20260905173118 33 360 9.7 19.3 0.00 0.00 0.00 53 1015.6
20260905173022 33 360 6.4 17.7 0.00 0.00 0.00 55 1015.6
20260905172921 33 360 6.4 17.7 0.00 0.00 0.00 55 1015.7
20260905172823 33 360 4.8 17.7 0.00 0.00 0.00 57 1015.7
20260905172743 33 360 8.0 17.7 0.00 0.00 0.00 57 1015.8
20260905172623 33 360 6.4 17.7 0.00 0.00 0.00 57 1015.7
20260905172523 33 360 8.0 17.7 0.00 0.00 0.00 57 1015.8
20260905172424 33 360 6.4 14.5 0.00 0.00 0.00 58 1015.8
20260905172344 32 360 4.8 14.5 0.00 0.00 0.00 58 1015.8
20260905172228 32 225 3.2 12.9 0.00 0.00 0.00 58 1015.9
20260905172148 32 360 6.4 17.7 0.00 0.00 0.00 58 1015.9
20260905172027 32 360 8.0 17.7 0.00 0.00 0.00 57 1015.9
20260905171928 32 360 6.4 17.7 0.00 0.00 0.00 57 1015.8
20260905171828 32 360 6.4 17.7 0.00 0.00 0.00 58 1015.9
20260905171729 32 360 6.4 17.7 0.00 0.00 0.00 58 1015.9
20260905171630 32 360 6.4 19.3 0.00 0.00 0.00 58 1016.0
20260905171534 32 360 4.8 19.3 0.00 0.00 0.00 59 1015.9
20260905171433 32 360 6.4 19.3 0.00 0.00 0.00 59 1016.0
20260905171334 32 360 9.7 20.9 0.00 0.00 0.00 58 1015.9
20260905171234 32 360 9.7 20.9 0.00 0.00 0.00 61 1015.9
20260905171155 32 360 8.0 20.9 0.00 0.00 0.00 60 1015.9
20260905171034 32 360 8.0 20.9 0.00 0.00 0.00 60 1015.8
20260905170935 32 360 8.0 20.9 0.00 0.00 0.00 61 1015.9
20260905170855 32 360 9.7 20.9 0.00 0.00 0.00 61 1015.9
20260905170716 32 360 12.9 20.9 0.00 0.00 0.00 61 1015.9
20260905170616 32 360 12.9 20.9 0.00 0.00 0.00 60 1016.0
20260905170517 32 360 12.9 20.9 0.00 0.00 0.00 60 1015.9
20260905170418 32 155 12.9 20.9 0.00 0.00 0.00 60 1015.9
20260905170317 32 360 12.9 20.9 0.00 0.00 0.00 60 1015.9
20260905170218 32 360 12.9 19.3 0.00 0.00 0.00 61 1016.0
20260905170123 32 360 12.9 19.3 0.00 0.00 0.00 61 1015.9
20260905170023 32 360 11.3 19.3 0.00 0.00 0.00 60 1016.0
20260905165923 32 360 9.7 19.3 0.00 0.00 0.00 62 1016.1
20260905165825 32 360 9.7 17.7 0.00 0.00 0.00 61 1016.0
20260905165725 32 360 9.7 17.7 0.00 0.00 0.00 60 1016.0
20260905165646 32 360 9.7 17.7 0.00 0.00 0.00 59 1016.0
20260905165526 32 360 6.4 17.7 0.00 0.00 0.00 58 1016.0
20260905165431 33 360 8.0 17.7 0.00 0.00 0.00 58 1016.1
20260905165332 33 360 9.7 17.7 0.00 0.00 0.00 58 1016.0
20260905165231 33 360 8.0 17.7 0.00 0.00 0.00 57 1016.1
20260905165132 34 360 4.8 17.7 0.00 0.00 0.00 56 1016.1
20260905165032 34 360 1.6 12.9 0.00 0.00 0.00 56 1016.0
20260905164933 34 360 1.6 12.9 0.00 0.00 0.00 57 1016.0
20260905164853 33 360 3.2 12.9 0.00 0.00 0.00 59 1016.1
20260905164736 33 360 4.8 12.9 0.00 0.00 0.00 60 1016.0
20260905164657 32 360 4.8 12.9 0.00 0.00 0.00 60 1016.0
20260905164555 32 360 4.8 17.7 0.00 0.00 0.00 60 1016.1
20260905164434 32 360 6.4 17.7 0.00 0.00 0.00 61 1016.1
20260905164335 32 360 6.4 17.7 0.00 0.00 0.00 60 1016.1
20260905164235 32 360 6.4 17.7 0.00 0.00 0.00 60 1016.1
20260905164135 32 360 4.8 17.7 0.00 0.00 0.00 60 1016.0
20260905164020 32 360 4.8 19.3 0.00 0.00 0.00 62 1016.0
20260905163920 32 360 6.4 19.3 0.00 0.00 0.00 61 1016.0
20260905163820 32 360 8.0 19.3 0.00 0.00 0.00 61 1016.1
20260905163721 32 360 8.0 19.3 0.00 0.00 0.00 61 1016.1
20260905163622 31 360 8.0 19.3 0.00 0.00 0.00 60 1016.1
20260905163542 31 360 6.4 19.3 0.00 0.00 0.00 60 1016.1
20260905163442 31 360 6.4 19.3 0.00 0.00 0.00 59 1016.2
20260905163321 31 360 11.3 19.3 0.00 0.00 0.00 59 1016.2
20260905163226 32 360 11.3 19.3 0.00 0.00 0.00 61 1016.2
20260905163127 32 360 9.7 16.1 0.00 0.00 0.00 62 1016.2
20260905163027 32 360 8.0 16.1 0.00 0.00 0.00 62 1016.1
20260905162929 32 360 4.8 16.1 0.00 0.00 0.00 63 1016.1
20260905162832 31 360 4.8 16.1 0.00 0.00 0.00 63 1016.1
20260905162732 31 360 4.8 16.1 0.00 0.00 0.00 63 1016.1
20260905162617 31 360 6.4 19.3 0.00 0.00 0.00 64 1016.1
20260905162537 31 360 8.0 19.3 0.00 0.00 0.00 63 1016.2
20260905162416 31 360 8.0 19.3 0.00 0.00 0.00 62 1016.1
20260905162317 31 360 9.7 22.5 0.00 0.00 0.00 62 1016.1
20260905162218 31 360 6.4 22.5 0.00 0.00 0.00 63 1016.2
20260905162117 31 360 6.4 22.5 0.00 0.00 0.00 63 1016.1
20260905162017 31 360 8.0 22.5 0.00 0.00 0.00 64 1016.2
20260905161917 31 360 11.3 22.5 0.00 0.00 0.00 64 1016.1
20260905161822 31 360 14.5 27.4 0.00 0.00 0.00 64 1016.2
20260905161742 31 360 14.5 27.4 0.00 0.00 0.00 65 1016.2
20260905161622 31 360 14.5 27.4 0.00 0.00 0.00 65 1016.1
20260905161521 31 151 9.7 27.4 0.00 0.00 0.00 66 1016.2
20260905161443 31 360 8.0 27.4 0.00 0.00 0.00 66 1016.2
20260905161316 31 360 6.4 27.4 0.00 0.00 0.00 66 1016.1
20260905161216 31 360 11.3 27.4 0.00 0.00 0.00 65 1016.2
20260905161120 31 360 12.9 27.4 0.00 0.00 0.00 65 1016.2
20260905161042 31 360 12.9 22.5 0.00 0.00 0.00 65 1016.2
20260905160920 31 360 8.0 17.7 0.00 0.00 0.00 65 1016.1
20260905160821 31 360 6.4 17.7 0.00 0.00 0.00 66 1016.1
20260905160721 31 360 9.7 17.7 0.00 0.00 0.00 66 1016.2
20260905160642 31 360 11.3 17.7 0.00 0.00 0.00 66 1016.2
20260905160521 31 360 9.7 17.7 0.00 0.00 0.00 66 1016.2
20260905160420 31 360 8.0 17.7 0.00 0.00 0.00 66 1016.1
20260905160325 31 360 8.0 17.7 0.00 0.00 0.00 66 1016.2
20260905160246 31 360 9.7 17.7 0.00 0.00 0.00 66 1016.2
20260905160125 31 360 9.7 17.7 0.00 0.00 0.00 66 1016.1
20260905160025 32 165 9.7 16.1 0.00 0.00 0.00 65 1016.1
20260905155926 32 360 8.0 16.1 0.00 0.00 0.00 65 1016.2
20260905155848 32 360 6.4 16.1 0.00 0.00 0.00 64 1016.1
20260905155725 32 360 4.8 16.1 0.00 0.00 0.00 65 1016.1
20260905155626 32 360 3.2 6.4 0.00 0.00 0.00 66 1016.1
20260905155531 32 360 3.2 8.0 0.00 0.00 0.00 66 1016.1
20260905155430 32 360 3.2 8.0 0.00 0.00 0.00 66 1016.1
20260905155330 32 360 1.6 8.0 0.00 0.00 0.00 68 1016.1
20260905155231 31 360 3.2 9.7 0.00 0.00 0.00 70 1016.1
20260905155151 31 360 3.2 12.9 0.00 0.00 0.00 70 1016.2
20260905155051 31 360 3.2 12.9 0.00 0.00 0.00 70 1016.2
20260905154931 31 360 4.8 14.5 0.00 0.00 0.00 70 1016.1
20260905154831 30 360 3.2 14.5 0.00 0.00 0.00 71 1016.1
20260905154735 30 360 4.8 14.5 0.00 0.00 0.00 71 1016.1
20260905154636 30 360 3.2 19.3 0.00 0.00 0.00 71 1016.2
20260905154556 30 360 4.8 19.3 0.00 0.00 0.00 72 1016.1
20260905154416 30 188 6.4 19.3 0.00 0.00 0.00 71 1016.2
20260905154317 30 360 6.4 19.3 0.00 0.00 0.00 73 1016.1
20260905154217 30 360 6.4 19.3 0.00 0.00 0.00 72 1016.1
20260905154117 30 360 9.7 19.3 0.00 0.00 0.00 74 1016.1
20260905154022 29 360 9.7 19.3 0.00 0.00 0.00 74 1016.2
20260905153943 29 360 11.3 19.3 0.00 0.00 0.00 73 1016.2
20260905153823 29 360 9.7 19.3 0.00 0.00 0.00 72 1016.2
20260905153724 29 360 8.0 19.3 0.00 0.00 0.00 72 1016.2
20260905153622 30 360 6.4 19.3 0.00 0.00 0.00 72 1016.1
20260905153523 30 360 4.8 19.3 0.00 0.00 0.00 72 1016.1
20260905153423 30 360 6.4 19.3 0.00 0.00 0.00 73 1016.2
20260905153324 30 360 8.0 24.1 0.00 0.00 0.00 73 1016.1
20260905153229 30 360 8.0 24.1 0.00 0.00 0.00 73 1016.1
20260905153130 29 360 8.0 24.1 0.00 0.00 0.00 73 1016.2
20260905153030 29 360 9.7 24.1 0.00 0.00 0.00 73 1016.1
20260905152931 29 360 9.7 24.1 0.00 0.00 0.00 74 1016.1
20260905152832 29 360 11.3 24.1 0.00 0.00 0.00 73 1016.1
20260905152733 30 360 14.5 24.1 0.00 0.00 0.00 73 1016.1
20260905152616 30 360 11.3 24.1 0.00 0.00 0.00 73 1016.2
20260905152517 30 360 8.0 24.1 0.00 0.00 0.00 73 1016.2
20260905152416 30 360 4.8 17.7 0.00 0.00 0.00 75 1016.1
20260905152317 30 360 4.8 17.7 0.00 0.00 0.00 75 1016.2
20260905152218 30 360 6.4 17.7 0.00 0.00 0.00 76 1016.1
20260905152138 29 360 8.0 17.7 0.00 0.00 0.00 76 1016.1
20260905152018 29 360 8.0 17.7 0.00 0.00 0.00 76 1016.2
20260905151922 29 360 8.0 17.7 0.00 0.00 0.00 76 1016.2
20260905151822 29 360 9.7 17.7 0.00 0.00 0.00 77 1016.2
20260905151743 28 360 9.7 17.7 0.00 0.00 0.00 77 1016.2
20260905151643 28 360 8.0 17.7 0.00 0.00 0.00 77 1016.2
20260905151516 28 360 4.8 17.7 0.00 0.00 0.00 77 1016.2
20260905151417 28 360 3.2 16.1 0.00 0.00 0.00 78 1016.2
20260905151317 28 166 4.8 17.7 0.00 0.00 0.00 78 1016.3
20260905151222 28 360 6.4 17.7 0.00 0.00 0.00 78 1016.3
20260905151121 28 360 6.4 17.7 0.00 0.00 0.00 78 1016.2
20260905151042 28 360 8.0 17.7 0.00 0.00 0.00 78 1016.2
20260905150922 28 360 6.4 17.7 0.00 0.00 0.00 78 1016.2
20260905150823 28 360 6.4 17.7 0.00 0.00 0.00 78 1016.3
20260905150725 28 360 6.4 17.7 0.00 0.00 0.00 78 1016.3
20260905150624 28 360 8.0 17.7 0.00 0.00 0.00 78 1016.3
20260905150529 28 360 9.7 17.7 0.00 0.00 0.00 78 1016.3
20260905150430 28 360 9.7 17.7 0.00 0.00 0.00 77 1016.3
20260905150331 28 360 8.0 17.7 0.00 0.00 0.00 77 1016.2
20260905150251 28 360 9.7 17.7 0.00 0.00 0.00 77 1016.3
20260905150131 28 360 8.0 17.7 0.00 0.00 0.00 77 1016.3
20260905150031 29 360 9.7 17.7 0.00 0.00 0.00 77 1016.3
20260905145930 29 360 8.0 17.7 0.00 0.00 0.00 79 1016.2
20260905145832 29 360 6.4 17.7 0.00 0.00 0.00 79 1016.2
20260905145716 28 360 6.4 17.7 0.00 0.00 0.00 78 1016.2
20260905145616 28 360 8.0 17.7 0.00 0.00 0.00 78 1016.2
20260905145518 28 360 9.7 17.7 0.00 0.00 0.00 78 1016.2
20260905145418 28 360 9.7 17.7 0.00 0.00 0.00 78 1016.2
20260905145318 28 360 8.0 17.7 0.00 0.00 0.00 78 1016.2
20260905145219 29 360 6.4 14.5 0.00 0.00 0.00 78 1016.2
20260905145123 29 360 4.8 14.5 0.00 0.00 0.00 78 1016.1
20260905145044 29 360 3.2 14.5 0.00 0.00 0.00 79 1016.1
20260905144923 29 360 1.6 12.9 0.00 0.00 0.00 79 1016.1
20260905144824 28 360 0.0 12.9 0.00 0.00 0.00 80 1016.1
20260905144723 28 360 1.6 12.9 0.00 0.00 0.00 81 1016.1
20260905144624 28 360 3.2 12.9 0.00 0.00 0.00 81 1016.1
20260905144524 28 360 3.2 16.1 0.00 0.00 0.00 82 1016.1
20260905144429 27 360 3.2 17.7 0.00 0.00 0.00 82 1016.0
20260905144328 27 360 3.2 17.7 0.00 0.00 0.00 82 1016.1
20260905144249 27 360 4.8 17.7 0.00 0.00 0.00 82 1016.1
20260905144147 27 360 4.8 17.7 0.00 0.00 0.00 82 1016.1
20260905144028 27 360 6.4 17.7 0.00 0.00 0.00 82 1016.1
20260905143928 27 360 8.0 17.7 0.00 0.00 0.00 82 1016.0
20260905143829 27 360 8.0 17.7 0.00 0.00 0.00 82 1016.1
20260905143733 27 360 8.0 17.7 0.00 0.00 0.00 82 1016.1
20260905143653 27 360 8.0 17.7 0.00 0.00 0.00 82 1016.1
20260905143553 27 360 9.7 17.7 0.00 0.00 0.00 82 1016.1
20260905143433 27 360 9.7 17.7 0.00 0.00 0.00 82 1016.1
20260905143334 27 360 9.7 17.7 0.00 0.00 0.00 82 1016.1
20260905143235 27 360 9.7 19.3 0.00 0.00 0.00 82 1016.1
20260905143135 27 360 9.7 19.3 0.00 0.00 0.00 82 1016.1
20260905143019 27 360 8.0 19.3 0.00 0.00 0.00 82 1016.0
20260905142939 27 178 8.0 19.3 0.00 0.00 0.00 82 1015.9
20260905142821 27 360 6.4 19.3 0.00 0.00 0.00 83 1016.0
20260905142722 27 176 6.4 19.3 0.00 0.00 0.00 83 1016.1
20260905142622 27 360 8.0 19.3 0.00 0.00 0.00 83 1016.0
20260905142523 27 360 11.3 19.3 0.00 0.00 0.00 83 1016.1
20260905142444 27 360 11.3 19.3 0.00 0.00 0.00 82 1016.0
20260905142324 27 360 9.7 19.3 0.00 0.00 0.00 82 1016.1
20260905142228 27 360 9.7 19.3 0.00 0.00 0.00 83 1016.1
20260905142129 27 360 6.4 14.5 0.00 0.00 0.00 84 1016.1
20260905142029 27 360 6.4 14.5 0.00 0.00 0.00 84 1016.1
20260905141929 27 360 6.4 14.5 0.00 0.00 0.00 85 1016.0
20260905141849 27 360 6.4 14.5 0.00 0.00 0.00 85 1016.0
20260905141728 27 360 8.0 14.5 0.00 0.00 0.00 85 1016.0
20260905141628 27 159 6.4 14.5 0.00 0.00 0.00 85 1016.0
20260905141553 27 360 4.8 14.5 0.00 0.00 0.00 86 1016.0
20260905141432 27 166 6.4 14.5 0.00 0.00 0.00 86 1016.0
20260905141353 27 360 8.0 14.5 0.00 0.00 0.00 85 1016.0
20260905141232 27 161 8.0 14.5 0.00 0.00 0.00 86 1015.9
20260905141133 27 360 4.8 12.9 0.00 0.00 0.00 86 1016.0
20260905141032 27 360 4.8 16.1 0.00 0.00 0.00 87 1015.9
20260905140933 27 360 4.8 16.1 0.00 0.00 0.00 87 1015.8
20260905140837 27 360 4.8 16.1 0.00 0.00 0.00 87 1015.9
20260905140758 27 360 3.2 16.1 0.00 0.00 0.00 88 1015.8
20260905140636 26 360 3.2 16.1 0.00 0.00 0.00 88 1015.8
20260905140516 26 360 4.8 16.1 0.00 0.00 0.00 87 1015.8
20260905140417 26 360 8.0 16.1 0.00 0.00 0.00 87 1015.9
20260905140318 26 360 9.7 16.1 0.00 0.00 0.00 87 1015.8
20260905140240 26 360 8.0 16.1 0.00 0.00 0.00 88 1015.9
20260905140119 26 360 4.8 8.0 0.00 0.00 0.00 88 1015.9
20260905140023 26 360 3.2 8.0 0.00 0.00 0.00 88 1015.9
20260905135924 26 360 1.6 4.8 0.00 0.00 0.00 89 1015.9
20260905135825 26 360 1.6 4.8 0.00 0.00 0.00 89 1015.8
20260905135726 26 360 3.2 4.8 0.00 0.00 0.00 89 1015.9
20260905135626 26 360 1.6 4.8 0.00 0.00 0.00 89 1015.9
20260905135527 26 360 1.6 4.8 0.00 0.00 0.00 89 1015.8
20260905135448 26 360 1.6 4.8 0.00 0.00 0.00 89 1015.9
20260905135332 26 360 1.6 4.8 0.00 0.00 0.00 89 1015.9
20260905135233 26 165 1.6 6.4 0.00 0.00 0.00 89 1015.8
20260905135134 26 360 1.6 3.2 0.00 0.00 0.00 89 1015.8
20260905135034 26 165 1.6 3.2 0.00 0.00 0.00 89 1015.8
20260905134935 26 360 1.6 4.8 0.00 0.00 0.00 89 1015.8
20260905134816 26 165 1.6 4.8 0.00 0.00 0.00 89 1015.8
20260905134722 26 360 1.6 4.8 0.00 0.00 0.00 89 1015.8
20260905134622 26 360 1.6 4.8 0.00 0.00 0.00 90 1015.8
20260905134542 26 360 1.6 4.8 0.00 0.00 0.00 90 1015.8
20260905134416 26 360 1.6 4.8 0.00 0.00 0.00 90 1015.9
20260905134316 26 360 0.0 4.8 0.00 0.00 0.00 90 1015.8
20260905134217 26 360 1.6 4.8 0.00 0.00 0.00 90 1015.8
20260905134122 26 360 1.6 4.8 0.00 0.00 0.00 90 1015.8
20260905134022 26 360 3.2 4.8 0.00 0.00 0.00 90 1015.8
20260905133922 26 360 1.6 4.8 0.00 0.00 0.00 90 1015.7
20260905133824 26 360 1.6 4.8 0.00 0.00 0.00 90 1015.8
20260905133723 26 360 1.6 8.0 0.00 0.00 0.00 90 1015.8
20260905133624 26 360 1.6 8.0 0.00 0.00 0.00 90 1015.8
20260905133524 25 360 3.2 8.0 0.00 0.00 0.00 91 1015.7
20260905133429 25 360 3.2 8.0 0.00 0.00 0.00 91 1015.7
20260905133329 25 360 3.2 8.0 0.00 0.00 0.00 91 1015.7
20260905133229 25 360 3.2 8.0 0.00 0.00 0.00 91 1015.6
20260905133150 25 360 3.2 8.0 0.00 0.00 0.00 91 1015.8
20260905133049 25 360 4.8 8.0 0.00 0.00 0.00 91 1015.7
20260905132928 25 360 4.8 8.0 0.00 0.00 0.00 91 1015.7
20260905132829 25 360 4.8 6.4 0.00 0.00 0.00 91 1015.7
20260905132729 25 360 4.8 6.4 0.00 0.00 0.00 91 1015.8
20260905132654 25 360 3.2 6.4 0.00 0.00 0.00 91 1015.8
20260905132533 25 360 3.2 4.8 0.00 0.00 0.00 91 1015.7
20260905132433 25 179 3.2 4.8 0.00 0.00 0.00 91 1015.8
20260905132352 25 360 1.6 4.8 0.00 0.00 0.00 91 1015.6
20260905132232 25 186 0.0 3.2 0.00 0.00 0.00 91 1015.7
20260905132131 25 360 0.0 3.2 0.00 0.00 0.00 91 1015.6
20260905132052 25 186 1.6 3.2 0.00 0.00 0.00 91 1015.6
20260905131930 25 186 1.6 3.2 0.00 0.00 0.00 91 1015.6
20260905131831 25 360 1.6 3.2 0.00 0.00 0.00 91 1015.6
20260905131751 25 360 1.6 3.2 0.00 0.00 0.00 91 1015.6
20260905131633 25 360 1.6 3.2 0.00 0.00 0.00 91 1015.6
20260905131534 25 360 1.6 3.2 0.00 0.00 0.00 91 1015.5
20260905131435 25 360 1.6 3.2 0.00 0.00 0.00 91 1015.5
20260905131336 25 360 1.6 3.2 0.00 0.00 0.00 91 1015.5
20260905131216 25 360 1.6 3.2 0.00 0.00 0.00 91 1015.5
20260905131117 25 360 1.6 3.2 0.00 0.00 0.00 91 1015.5
20260905131021 25 360 1.6 3.2 0.00 0.00 0.00 91 1015.4
20260905130921 25 186 0.0 3.2 0.00 0.00 0.00 91 1015.5
20260905130823 25 186 0.0 1.6 0.00 0.00 0.00 91 1015.4
20260905130723 25 360 0.0 1.6 0.00 0.00 0.00 91 1015.5
20260905130624 25 360 0.0 1.6 0.00 0.00 0.00 91 1015.5
20260905130545 25 360 0.0 3.2 0.00 0.00 0.00 91 1015.5
20260905130444 25 360 0.0 3.2 0.00 0.00 0.00 91 1015.4
20260905130323 25 360 0.0 6.4 0.00 0.00 0.00 91 1015.4
20260905130242 25 360 0.0 6.4 0.00 0.00 0.00 91 1015.4
20260905130126 25 360 0.0 6.4 0.00 0.00 0.00 91 1015.4
20260905130027 25 360 0.0 6.4 0.00 0.00 0.00 91 1015.4
20260905125928 25 360 0.0 6.4 0.00 0.00 0.00 91 1015.5
20260905125849 25 360 0.0 6.4 0.00 0.00 0.00 91 1015.4
20260905125727 24 360 0.0 6.4 0.00 0.00 0.00 91 1015.4
20260905125628 24 360 1.6 6.4 0.00 0.00 0.00 91 1015.4
20260905125529 24 360 1.6 6.4 0.00 0.00 0.00 91 1015.3
20260905125434 24 186 1.6 6.4 0.00 0.00 0.00 91 1015.4
20260905125334 24 186 1.6 6.4 0.00 0.00 0.00 91 1015.3
20260905125234 24 360 0.0 0.0 0.00 0.00 0.00 91 1015.3
20260905125135 24 360 0.0 0.0 0.00 0.00 0.00 91 1015.3
20260905125036 24 360 0.0 0.0 0.00 0.00 0.00 91 1015.2
20260905124935 24 360 0.0 0.0 0.00 0.00 0.00 91 1015.2
20260905124820 24 360 0.0 0.0 0.00 0.00 0.00 91 1015.2
20260905124741 24 360 0.0 0.0 0.00 0.00 0.00 91 1015.2
20260905124621 24 360 0.0 0.0 0.00 0.00 0.00 91 1015.2
20260905124519 24 360 0.0 0.0 0.00 0.00 0.00 91 1015.2
20260905124420 24 360 0.0 0.0 0.00 0.00 0.00 91 1015.2
20260905124320 23 360 0.0 0.0 0.00 0.00 0.00 91 1015.1
20260905124220 23 185 0.0 0.0 0.00 0.00 0.00 91 1015.1
20260905124141 23 360 0.0 0.0 0.00 0.00 0.00 91 1015.2
20260905124041 23 185 0.0 0.0 0.00 0.00 0.00 91 1015.1
20260905123925 23 185 0.0 0.0 0.00 0.00 0.00 91 1015.1
20260905123825 23 185 0.0 0.0 0.00 0.00 0.00 91 1015.1
20260905123724 23 360 0.0 0.0 0.00 0.00 0.00 91 1015.1
20260905123624 23 185 0.0 0.0 0.00 0.00 0.00 91 1015.1
20260905123523 23 185 0.0 0.0 0.00 0.00 0.00 91 1015.1
20260905123423 23 185 0.0 0.0 0.00 0.00 0.00 91 1015.2
20260905123324 23 185 0.0 0.0 0.00 0.00 0.00 91 1015.1
20260905123228 23 185 0.0 0.0 0.00 0.00 0.00 91 1015.1
20260905123129 23 185 0.0 0.0 0.00 0.00 0.00 91 1015.1
20260905123030 23 185 0.0 0.0 0.00 0.00 0.00 91 1015.1
20260905122931 23 185 0.0 0.0 0.00 0.00 0.00 91 1015.1
20260905122833 23 185 0.0 0.0 0.00 0.00 0.00 91 1015.2
20260905122733 23 185 0.0 0.0 0.00 0.00 0.00 91 1015.1
20260905122617 23 185 0.0 0.0 0.00 0.00 0.00 91 1015.1
20260905122517 23 185 0.0 0.0 0.00 0.00 0.00 90 1015.2
20260905122419 23 185 0.0 0.0 0.00 0.00 0.00 90 1015.1
20260905122319 23 185 0.0 0.0 0.00 0.00 0.00 90 1015.2
20260905122221 23 185 0.0 0.0 0.00 0.00 0.00 90 1015.2
20260905122121 23 185 0.0 0.0 0.00 0.00 0.00 91 1015.1
20260905122021 23 185 0.0 0.0 0.00 0.00 0.00 91 1015.2
20260905121926 23 185 0.0 0.0 0.00 0.00 0.00 90 1015.1
20260905121847 23 185 0.0 0.0 0.00 0.00 0.00 90 1015.1
20260905121726 23 185 0.0 0.0 0.00 0.00 0.00 90 1015.1
20260905121627 23 185 0.0 0.0 0.00 0.00 0.00 90 1015.2
20260905121526 23 185 0.0 0.0 0.00 0.00 0.00 90 1015.1
20260905121447 23 360 0.0 0.0 0.00 0.00 0.00 90 1015.1
20260905121327 23 185 0.0 0.0 0.00 0.00 0.00 90 1015.1
20260905121232 23 185 0.0 0.0 0.00 0.00 0.00 90 1015.1
20260905121132 23 185 0.0 0.0 0.00 0.00 0.00 90 1015.1
20260905121033 24 185 0.0 0.0 0.00 0.00 0.00 90 1015.0
20260905120934 24 185 0.0 0.0 0.00 0.00 0.00 90 1015.0
20260905120835 24 360 0.0 0.0 0.00 0.00 0.00 90 1015.0
20260905120735 24 360 0.0 0.0 0.00 0.00 0.00 90 1015.0
20260905120620 24 360 0.0 0.0 0.00 0.00 0.00 90 1015.0
20260905120519 24 360 0.0 0.0 0.00 0.00 0.00 90 1015.0
20260905120421 24 360 0.0 0.0 0.00 0.00 0.00 90 1014.9
20260905120321 24 360 0.0 0.0 0.00 0.00 0.00 90 1015.0
20260905120242 24 360 0.0 0.0 0.00 0.00 0.00 90 1015.0
20260905120121 24 360 0.0 0.0 0.00 0.00 0.00 90 1015.0
20260905120021 24 360 0.0 0.0 0.00 0.00 0.00 90 1015.0
20260905115921 24 185 0.0 0.0 0.00 0.00 0.00 90 1015.0
20260905115827 24 360 0.0 0.0 0.00 0.00 0.00 90 1015.0
20260905115727 24 185 0.0 0.0 0.00 0.00 0.00 90 1015.0
20260905115646 24 185 0.0 0.0 0.00 0.00 0.00 90 1015.1
20260905115526 24 360 0.0 0.0 0.00 0.00 0.00 90 1015.0
20260905115427 24 360 0.0 0.0 0.00 0.00 0.00 90 1015.0
20260905115327 24 360 0.0 0.0 0.00 0.00 0.00 90 1015.1
20260905115228 24 360 0.0 0.0 0.00 0.00 0.00 90 1015.1
20260905115133 24 360 0.0 0.0 0.00 0.00 0.00 90 1015.0
20260905115034 24 360 0.0 0.0 0.00 0.00 0.00 90 1015.0
20260905114935 24 360 0.0 0.0 0.00 0.00 0.00 90 1015.0
20260905114836 24 360 0.0 0.0 0.00 0.00 0.00 90 1014.9
20260905114717 24 360 0.0 0.0 0.00 0.00 0.00 90 1014.9
20260905114617 24 360 0.0 0.0 0.00 0.00 0.00 90 1014.9
20260905114520 24 360 0.0 0.0 0.00 0.00 0.00 90 1014.9
20260905114421 24 360 0.0 0.0 0.00 0.00 0.00 90 1015.0
20260905114321 24 360 0.0 0.0 0.00 0.00 0.00 90 1014.9
20260905114242 24 185 0.0 0.0 0.00 0.00 0.00 90 1014.8
20260905114123 24 185 0.0 0.0 0.00 0.00 0.00 90 1014.8
20260905114045 23 185 0.0 0.0 0.00 0.00 0.00 90 1014.7
20260905113925 24 360 0.0 0.0 0.00 0.00 0.00 90 1014.8
20260905113825 23 360 0.0 0.0 0.00 0.00 0.00 90 1014.8
20260905113750 24 185 0.0 0.0 0.00 0.00 0.00 90 1014.8
20260905113631 24 185 0.0 0.0 0.00 0.00 0.00 90 1014.7
20260905113552 24 185 0.0 0.0 0.00 0.00 0.00 90 1014.8
20260905113452 24 185 0.0 0.0 0.00 0.00 0.00 90 1014.7
20260905113352 24 360 0.0 0.0 0.00 0.00 0.00 89 1014.8
20260905113231 24 360 0.0 0.0 0.00 0.00 0.00 89 1014.8
20260905113132 24 360 0.0 0.0 0.00 0.00 0.00 90 1014.7
20260905113033 24 360 0.0 0.0 0.00 0.00 0.00 90 1014.8
20260905112918 24 360 0.0 0.0 0.00 0.00 0.00 90 1014.8
20260905112819 24 360 0.0 0.0 0.00 0.00 0.00 90 1014.8
20260905112720 24 360 0.0 0.0 0.00 0.00 0.00 90 1014.8
20260905112641 24 360 0.0 0.0 0.00 0.00 0.00 90 1014.8
20260905112520 24 360 0.0 0.0 0.00 0.00 0.00 89 1014.8
20260905112421 24 360 0.0 0.0 0.00 0.00 0.00 89 1014.8
20260905112321 24 360 0.0 0.0 0.00 0.00 0.00 89 1014.8
20260905112246 24 360 0.0 0.0 0.00 0.00 0.00 89 1014.8
20260905112125 24 360 0.0 0.0 0.00 0.00 0.00 89 1014.8
20260905112025 24 360 0.0 0.0 0.00 0.00 0.00 89 1014.7
20260905111927 24 360 0.0 0.0 0.00 0.00 0.00 89 1014.7
20260905111828 24 360 0.0 0.0 0.00 0.00 0.00 89 1014.7
20260905111728 24 360 0.0 0.0 0.00 0.00 0.00 89 1014.7
20260905111630 24 360 0.0 0.0 0.00 0.00 0.00 89 1014.7
20260905111534 24 360 0.0 0.0 0.00 0.00 0.00 89 1014.6
20260905111435 24 360 0.0 0.0 0.00 0.00 0.00 89 1014.6
20260905111335 24 360 0.0 0.0 0.00 0.00 0.00 89 1014.7
20260905111235 24 360 0.0 0.0 0.00 0.00 0.00 89 1014.6
20260905111117 24 360 0.0 0.0 0.00 0.00 0.00 89 1014.7
20260905111038 24 360 0.0 0.0 0.00 0.00 0.00 89 1014.7
20260905110922 24 360 0.0 0.0 0.00 0.00 0.00 89 1014.6
20260905110822 24 360 0.0 0.0 0.00 0.00 0.00 89 1014.6
20260905110723 24 360 0.0 0.0 0.00 0.00 0.00 89 1014.6
20260905110625 24 360 0.0 0.0 0.00 0.00 0.00 89 1014.7
20260905110526 24 360 0.0 0.0 0.00 0.00 0.00 89 1014.7
20260905110425 24 360 0.0 0.0 0.00 0.00 0.00 89 1014.7
20260905110326 24 360 0.0 0.0 0.00 0.00 0.00 89 1014.7
20260905110250 24 360 0.0 0.0 0.00 0.00 0.00 89 1014.6
20260905110130 24 360 0.0 0.0 0.00 0.00 0.00 89 1014.6
20260905110029 24 360 0.0 0.0 0.00 0.00 0.00 89 1014.6
20260905105930 24 360 0.0 0.0 0.00 0.00 0.00 89 1014.6
20260905105832 24 360 0.0 0.0 0.00 0.00 0.00 89 1014.6
20260905105752 24 360 0.0 0.0 0.00 0.00 0.00 89 1014.6
20260905105631 24 360 0.0 0.0 0.00 0.00 0.00 89 1014.6
20260905105516 24 360 0.0 0.0 0.00 0.00 0.00 89 1014.7
20260905105416 24 360 0.0 0.0 0.00 0.00 0.00 89 1014.6
20260905105337 24 360 0.0 0.0 0.00 0.00 0.00 89 1014.6
20260905105236 24 360 0.0 0.0 0.00 0.00 0.00 89 1014.5
20260905105116 24 360 0.0 0.0 0.00 0.00 0.00 89 1014.6
20260905105017 24 360 0.0 0.0 0.00 0.00 0.00 89 1014.6
20260905104918 25 360 0.0 0.0 0.00 0.00 0.00 89 1014.5
20260905104823 24 360 0.0 0.0 0.00 0.00 0.00 89 1014.5
20260905104724 24 360 0.0 0.0 0.00 0.00 0.00 89 1014.5
20260905104624 25 360 0.0 0.0 0.00 0.00 0.00 89 1014.5
20260905104525 25 360 0.0 0.0 0.00 0.00 0.00 89 1014.5
20260905104445 25 360 0.0 0.0 0.00 0.00 0.00 89 1014.6
20260905104325 25 360 0.0 0.0 0.00 0.00 0.00 89 1014.5
20260905104245 25 360 0.0 0.0 0.00 0.00 0.00 89 1014.5
20260905104125 25 360 0.0 0.0 0.00 0.00 0.00 89 1014.6
20260905104029 25 360 0.0 0.0 0.00 0.00 0.00 89 1014.5
20260905103930 25 360 0.0 0.0 0.00 0.00 0.00 89 1014.5
20260905103830 25 360 0.0 0.0 0.00 0.00 0.00 89 1014.5
20260905103751 25 360 0.0 0.0 0.00 0.00 0.00 89 1014.5
20260905103629 25 360 0.0 0.0 0.00 0.00 0.00 89 1014.5
20260905103528 25 360 0.0 0.0 0.00 0.00 0.00 89 1014.5
20260905103429 25 360 0.0 0.0 0.00 0.00 0.00 89 1014.5
20260905103334 25 360 0.0 0.0 0.00 0.00 0.00 89 1014.6
20260905103235 25 360 0.0 0.0 0.00 0.00 0.00 89 1014.5
20260905103134 25 360 0.0 0.0 0.00 0.00 0.00 89 1014.6
20260905103034 25 360 0.0 0.0 0.00 0.00 0.00 89 1014.5
20260905102935 25 360 0.0 0.0 0.00 0.00 0.00 89 1014.6
20260905102836 25 360 0.0 0.0 0.00 0.00 0.00 89 1014.5
20260905102716 25 360 0.0 0.0 0.00 0.00 0.00 89 1014.5
20260905102640 25 360 0.0 0.0 0.00 0.00 0.00 89 1014.4
20260905102519 25 360 0.0 0.0 0.00 0.00 0.00 89 1014.5
20260905102419 25 360 0.0 3.2 0.00 0.00 0.00 89 1014.4
20260905102320 25 360 0.0 3.2 0.00 0.00 0.00 89 1014.5
20260905102220 25 360 0.0 3.2 0.00 0.00 0.00 89 1014.5
20260905102120 25 360 0.0 3.2 0.00 0.00 0.00 89 1014.5
20260905102042 25 360 0.0 3.2 0.00 0.00 0.00 89 1014.5
20260905101921 25 360 0.0 4.8 0.00 0.00 0.00 89 1014.5
20260905101842 25 360 0.0 4.8 0.00 0.00 0.00 89 1014.5
20260905101726 25 360 0.0 4.8 0.00 0.00 0.00 89 1014.5
20260905101646 25 360 1.6 4.8 0.00 0.00 0.00 89 1014.4
20260905101525 25 360 1.6 4.8 0.00 0.00 0.00 89 1014.4
20260905101426 25 360 1.6 4.8 0.00 0.00 0.00 89 1014.4
20260905101347 25 360 1.6 4.8 0.00 0.00 0.00 89 1014.3
20260905101228 25 360 1.6 4.8 0.00 0.00 0.00 89 1014.4
20260905101126 25 360 1.6 4.8 0.00 0.00 0.00 89 1014.4
20260905101027 25 360 1.6 4.8 0.00 0.00 0.00 89 1014.3
20260905100952 25 360 0.0 3.2 0.00 0.00 0.00 89 1014.4
20260905100831 25 360 0.0 1.6 0.00 0.00 0.00 89 1014.4
20260905100732 25 185 0.0 1.6 0.00 0.00 0.00 89 1014.4
20260905100632 25 360 0.0 1.6 0.00 0.00 0.00 89 1014.5
20260905100533 25 360 0.0 3.2 0.00 0.00 0.00 89 1014.4
20260905100454 25 360 0.0 3.2 0.00 0.00 0.00 89 1014.5
20260905100334 25 360 0.0 3.2 0.00 0.00 0.00 88 1014.4
20260905100219 25 360 0.0 3.2 0.00 0.00 0.00 88 1014.5
20260905100118 25 360 0.0 3.2 0.00 0.00 0.00 88 1014.4
20260905100019 25 360 0.0 3.2 0.00 0.00 0.00 88 1014.4
20260905095939 25 360 1.6 3.2 0.00 0.00 0.00 88 1014.5
20260905095820 25 360 1.6 3.2 0.00 0.00 0.00 88 1014.5
20260905095718 25 360 1.6 3.2 0.00 0.00 0.00 88 1014.4
20260905095619 25 360 1.6 3.2 0.00 0.00 0.00 88 1014.4
20260905095524 25 360 1.6 3.2 0.00 0.00 0.00 88 1014.4
20260905095425 25 360 1.6 3.2 0.00 0.00 0.00 88 1014.4
20260905095346 25 360 1.6 3.2 0.00 0.00 0.00 88 1014.4
20260905095224 25 360 1.6 3.2 0.00 0.00 0.00 88 1014.4
20260905095126 25 360 0.0 1.6 0.00 0.00 0.00 88 1014.3
20260905095026 25 360 0.0 1.6 0.00 0.00 0.00 88 1014.4
20260905094926 25 360 0.0 0.0 0.00 0.00 0.00 88 1014.3
20260905094827 25 360 0.0 0.0 0.00 0.00 0.00 88 1014.3
20260905094730 25 360 0.0 0.0 0.00 0.00 0.00 88 1014.3
20260905094650 25 360 0.0 0.0 0.00 0.00 0.00 88 1014.3
20260905094530 25 360 0.0 0.0 0.00 0.00 0.00 88 1014.3
20260905094431 25 360 0.0 0.0 0.00 0.00 0.00 89 1014.3
20260905094331 25 360 0.0 0.0 0.00 0.00 0.00 88 1014.3
20260905094232 25 360 0.0 0.0 0.00 0.00 0.00 88 1014.2
20260905094116 25 360 0.0 0.0 0.00 0.00 0.00 88 1014.2
20260905094037 25 185 0.0 0.0 0.00 0.00 0.00 88 1014.3
20260905093917 25 185 0.0 0.0 0.00 0.00 0.00 88 1014.2
20260905093817 25 185 0.0 1.6 0.00 0.00 0.00 88 1014.3
20260905093719 25 185 0.0 1.6 0.00 0.00 0.00 88 1014.2
20260905093621 25 185 0.0 1.6 0.00 0.00 0.00 88 1014.1
20260905093521 25 185 0.0 3.2 0.00 0.00 0.00 88 1014.2
20260905093426 25 360 0.0 3.2 0.00 0.00 0.00 88 1014.2
20260905093325 25 360 0.0 3.2 0.00 0.00 0.00 88 1014.1
20260905093225 25 360 0.0 3.2 0.00 0.00 0.00 88 1014.2
20260905093127 25 185 0.0 3.2 0.00 0.00 0.00 88 1014.1
20260905093028 25 185 0.0 3.2 0.00 0.00 0.00 88 1014.1
20260905092949 25 360 0.0 3.2 0.00 0.00 0.00 88 1014.1
20260905092829 25 360 0.0 3.2 0.00 0.00 0.00 88 1014.1
20260905092729 25 360 1.6 3.2 0.00 0.00 0.00 88 1014.1
20260905092633 25 360 1.6 3.2 0.00 0.00 0.00 88 1014.1
20260905092534 25 360 1.6 3.2 0.00 0.00 0.00 88 1014.2
20260905092454 25 360 1.6 3.2 0.00 0.00 0.00 88 1014.2
20260905092333 25 360 0.0 6.4 0.00 0.00 0.00 88 1014.2
20260905092253 25 360 0.0 6.4 0.00 0.00 0.00 88 1014.1
20260905092153 25 360 0.0 6.4 0.00 0.00 0.00 88 1014.2
20260905092032 25 360 0.0 6.4 0.00 0.00 0.00 88 1014.2
20260905091933 25 360 1.6 6.4 0.00 0.00 0.00 88 1014.2
20260905091817 25 360 1.6 6.4 0.00 0.00 0.00 88 1014.2
20260905091717 25 360 1.6 6.4 0.00 0.00 0.00 88 1014.2
20260905091618 25 360 1.6 6.4 0.00 0.00 0.00 89 1014.3
20260905091519 25 360 3.2 6.4 0.00 0.00 0.00 89 1014.3
20260905091419 25 360 3.2 8.0 0.00 0.00 0.00 88 1014.4
20260905091319 25 360 1.6 8.0 0.00 0.00 0.00 88 1014.4
20260905091224 25 360 1.6 8.0 0.00 0.00 0.00 88 1014.4
20260905091126 25 360 1.6 8.0 0.00 0.00 0.00 88 1014.3
20260905091026 25 185 1.6 8.0 0.00 0.00 0.00 88 1014.3
20260905090927 25 360 1.6 8.0 0.00 0.00 0.00 88 1014.3
20260905090825 25 360 3.2 8.0 0.00 0.00 0.00 88 1014.3
20260905090725 25 360 3.2 8.0 0.00 0.00 0.00 88 1014.4
20260905090625 25 360 4.8 8.0 0.00 0.00 0.00 88 1014.4
20260905090530 25 360 4.8 8.0 0.00 0.00 0.00 88 1014.3
20260905090451 25 360 3.2 6.4 0.00 0.00 0.00 88 1014.3
20260905090330 25 360 3.2 6.4 0.00 0.00 0.00 88 1014.3
20260905090230 25 360 3.2 8.0 0.00 0.00 0.00 88 1014.3
20260905090131 25 360 3.2 8.0 0.00 0.00 0.00 88 1014.3
20260905090051 25 360 3.2 8.0 0.00 0.00 0.00 88 1014.3
20260905085930 25 360 3.2 8.0 0.00 0.00 0.00 88 1014.3
20260905085832 25 360 3.2 9.7 0.00 0.00 0.00 88 1014.3
20260905085734 25 360 1.6 9.7 0.00 0.00 0.00 88 1014.5
20260905085634 25 185 1.6 12.9 0.00 0.00 0.00 88 1014.3
20260905085534 25 360 3.2 12.9 0.00 0.00 0.00 88 1014.4
20260905085455 25 360 3.2 12.9 0.00 0.00 0.00 88 1014.4
20260905085334 25 360 3.2 12.9 0.00 0.00 0.00 88 1014.4
20260905085235 25 360 3.2 12.9 0.00 0.00 0.00 88 1014.4
20260905085156 25 360 3.2 12.9 0.00 0.00 0.00 88 1014.4
20260905085019 25 360 4.8 12.9 0.00 0.00 0.00 88 1014.4
20260905084919 25 360 6.4 12.9 0.00 0.00 0.00 88 1014.4
20260905084819 25 360 6.4 12.9 0.00 0.00 0.00 88 1014.4
20260905084718 25 360 6.4 12.9 0.00 0.00 0.00 88 1014.4
20260905084619 25 360 4.8 12.9 0.00 0.00 0.00 87 1014.5
20260905084520 25 360 6.4 16.1 0.00 0.00 0.00 87 1014.4
20260905084420 25 360 4.8 16.1 0.00 0.00 0.00 87 1014.5
20260905084320 25 360 6.4 16.1 0.00 0.00 0.00 87 1014.4
20260905084225 25 360 6.4 16.1 0.00 0.00 0.00 87 1014.4
20260905084127 25 360 6.4 16.1 0.00 0.00 0.00 87 1014.4
20260905084028 25 360 6.4 16.1 0.00 0.00 0.00 87 1014.4
20260905083928 25 360 8.0 16.1 0.00 0.00 0.00 87 1014.4
20260905083828 25 360 8.0 16.1 0.00 0.00 0.00 87 1014.4
20260905083729 25 360 8.0 16.1 0.00 0.00 0.00 87 1014.4
20260905083633 25 360 6.4 16.1 0.00 0.00 0.00 87 1014.5
20260905083554 25 360 6.4 16.1 0.00 0.00 0.00 87 1014.5
20260905083434 25 360 6.4 16.1 0.00 0.00 0.00 87 1014.4
20260905083335 25 360 8.0 16.1 0.00 0.00 0.00 87 1014.5
20260905083216 25 360 6.4 16.1 0.00 0.00 0.00 87 1014.4
20260905083116 25 360 8.0 16.1 0.00 0.00 0.00 87 1014.5
20260905083038 25 360 6.4 14.5 0.00 0.00 0.00 87 1014.5
20260905082921 25 360 6.4 14.5 0.00 0.00 0.00 87 1014.5
20260905082822 25 360 6.4 14.5 0.00 0.00 0.00 87 1014.4
20260905082719 25 360 4.8 14.5 0.00 0.00 0.00 87 1014.5
20260905082620 25 360 4.8 14.5 0.00 0.00 0.00 87 1014.4
20260905082541 25 360 4.8 16.1 0.00 0.00 0.00 87 1014.5
20260905082420 25 360 6.4 16.1 0.00 0.00 0.00 87 1014.5
20260905082320 25 360 8.0 16.1 0.00 0.00 0.00 87 1014.4
20260905082219 25 360 6.4 16.1 0.00 0.00 0.00 87 1014.4
20260905082125 25 360 4.8 16.1 0.00 0.00 0.00 87 1014.5
20260905082025 25 360 3.2 16.1 0.00 0.00 0.00 87 1014.5
20260905081926 25 360 4.8 16.1 0.00 0.00 0.00 86 1014.5
20260905081826 25 360 6.4 16.1 0.00 0.00 0.00 86 1014.6
20260905081746 25 360 6.4 16.1 0.00 0.00 0.00 86 1014.6
20260905081625 25 360 4.8 14.5 0.00 0.00 0.00 86 1014.6
20260905081526 26 360 3.2 12.9 0.00 0.00 0.00 86 1014.6
20260905081430 26 360 3.2 12.9 0.00 0.00 0.00 86 1014.6
20260905081351 25 360 3.2 12.9 0.00 0.00 0.00 86 1014.6
20260905081231 26 360 3.2 12.9 0.00 0.00 0.00 86 1014.7
20260905081132 26 360 4.8 12.9 0.00 0.00 0.00 86 1014.6
20260905081031 26 360 6.4 12.9 0.00 0.00 0.00 86 1014.6
20260905080932 26 360 4.8 12.9 0.00 0.00 0.00 86 1014.7
20260905080832 26 360 6.4 14.5 0.00 0.00 0.00 86 1014.7
20260905080717 26 360 6.4 14.5 0.00 0.00 0.00 86 1014.7
20260905080617 26 360 6.4 14.5 0.00 0.00 0.00 86 1014.8
20260905080517 26 360 4.8 16.1 0.00 0.00 0.00 86 1014.7
20260905080418 26 360 4.8 16.1 0.00 0.00 0.00 86 1014.8
20260905080318 26 360 4.8 16.1 0.00 0.00 0.00 86 1014.8
20260905080219 26 360 6.4 16.1 0.00 0.00 0.00 86 1014.8
20260905080123 26 360 6.4 16.1 0.00 0.00 0.00 86 1014.8
20260905080045 26 360 4.8 16.1 0.00 0.00 0.00 86 1014.8
20260905075925 26 360 6.4 16.1 0.00 0.00 0.00 86 1014.7
20260905075827 26 360 6.4 16.1 0.00 0.00 0.00 86 1014.8
20260905075727 26 360 6.4 16.1 0.00 0.00 0.00 86 1014.8
20260905075626 26 360 3.2 14.5 0.00 0.00 0.00 85 1014.8
20260905075527 26 360 3.2 14.5 0.00 0.00 0.00 85 1014.7
20260905075432 26 360 4.8 14.5 0.00 0.00 0.00 85 1014.8
20260905075332 26 360 6.4 14.5 0.00 0.00 0.00 85 1014.8
20260905075233 26 360 4.8 14.5 0.00 0.00 0.00 85 1014.8
20260905075132 26 360 4.8 14.5 0.00 0.00 0.00 85 1014.8
20260905075052 26 360 4.8 14.5 0.00 0.00 0.00 85 1014.8
20260905074932 26 360 8.0 14.5 0.00 0.00 0.00 85 1014.9
20260905074833 26 360 8.0 14.5 0.00 0.00 0.00 85 1014.8
20260905074754 26 360 8.0 14.5 0.00 0.00 0.00 85 1014.9
20260905074617 26 360 8.0 14.5 0.00 0.00 0.00 85 1014.8
20260905074517 26 360 8.0 14.5 0.00 0.00 0.00 85 1014.9
20260905074417 26 360 6.4 14.5 0.00 0.00 0.00 85 1015.0
20260905074338 26 360 6.4 17.7 0.00 0.00 0.00 85 1014.9
20260905074216 26 360 6.4 17.7 0.00 0.00 0.00 85 1014.9
20260905074118 26 360 6.4 17.7 0.00 0.00 0.00 85 1015.0
20260905074016 26 360 6.4 17.7 0.00 0.00 0.00 85 1015.0
20260905073916 26 177 6.4 17.7 0.00 0.00 0.00 85 1014.9
20260905073821 26 360 8.0 17.7 0.00 0.00 0.00 85 1014.8
20260905073723 26 360 8.0 17.7 0.00 0.00 0.00 85 1014.9
20260905073624 26 170 9.7 17.7 0.00 0.00 0.00 85 1014.9
20260905073523 26 360 8.0 17.7 0.00 0.00 0.00 85 1014.9
20260905073424 26 360 6.4 14.5 0.00 0.00 0.00 84 1014.9
20260905073325 26 360 4.8 14.5 0.00 0.00 0.00 84 1014.9
20260905073226 26 360 4.8 14.5 0.00 0.00 0.00 84 1014.8
20260905073151 26 360 4.8 14.5 0.00 0.00 0.00 84 1014.8
20260905073050 26 360 8.0 14.5 0.00 0.00 0.00 84 1014.8
20260905072930 26 360 8.0 14.5 0.00 0.00 0.00 84 1014.9
20260905072832 26 360 6.4 14.5 0.00 0.00 0.00 84 1014.8
20260905072732 26 360 6.4 12.9 0.00 0.00 0.00 84 1015.0
20260905072632 26 360 8.0 12.9 0.00 0.00 0.00 84 1014.9
20260905072533 26 360 8.0 12.9 0.00 0.00 0.00 84 1014.9
20260905072418 26 360 9.7 14.5 0.00 0.00 0.00 84 1015.0
20260905072319 26 360 8.0 14.5 0.00 0.00 0.00 84 1015.0
20260905072220 26 360 8.0 14.5 0.00 0.00 0.00 84 1015.0
20260905072141 26 360 8.0 14.5 0.00 0.00 0.00 84 1015.1
20260905072040 26 360 9.7 14.5 0.00 0.00 0.00 84 1015.0
20260905071941 26 360 9.7 14.5 0.00 0.00 0.00 84 1015.0
20260905071821 26 360 8.0 14.5 0.00 0.00 0.00 84 1015.0
20260905071721 26 360 8.0 12.9 0.00 0.00 0.00 84 1015.0
20260905071627 26 360 6.4 12.9 0.00 0.00 0.00 84 1015.1
20260905071528 26 360 6.4 9.7 0.00 0.00 0.00 84 1015.1
20260905071430 26 360 4.8 12.9 0.00 0.00 0.00 84 1015.1
20260905071331 26 360 6.4 12.9 0.00 0.00 0.00 84 1015.1
20260905071231 26 360 4.8 12.9 0.00 0.00 0.00 84 1015.1
20260905071132 26 360 6.4 12.9 0.00 0.00 0.00 84 1015.1
20260905071018 26 360 6.4 12.9 0.00 0.00 0.00 84 1015.1
20260905070919 26 360 4.8 12.9 0.00 0.00 0.00 84 1015.1
20260905070819 26 360 4.8 14.5 0.00 0.00 0.00 84 1015.1
20260905070720 26 360 6.4 14.5 0.00 0.00 0.00 84 1015.0
20260905070621 26 360 6.4 14.5 0.00 0.00 0.00 84 1015.1
20260905070521 26 360 6.4 14.5 0.00 0.00 0.00 84 1015.0
20260905070426 26 360 4.8 14.5 0.00 0.00 0.00 83 1015.0
20260905070327 26 360 4.8 16.1 0.00 0.00 0.00 83 1015.1
20260905070247 26 360 6.4 16.1 0.00 0.00 0.00 83 1015.0
20260905070126 26 360 6.4 16.1 0.00 0.00 0.00 83 1015.1
20260905070026 26 360 6.4 16.1 0.00 0.00 0.00 83 1015.0
20260905065927 26 360 6.4 16.1 0.00 0.00 0.00 83 1015.0
20260905065829 26 360 4.8 16.1 0.00 0.00 0.00 83 1015.1
20260905065732 26 360 3.2 16.1 0.00 0.00 0.00 83 1015.0
20260905065632 26 360 6.4 16.1 0.00 0.00 0.00 83 1015.0
20260905065533 26 360 6.4 16.1 0.00 0.00 0.00 83 1015.1
20260905065429 26 360 6.4 16.1 0.00 0.00 0.00 83 1015.0
20260905065330 26 360 6.4 12.9 0.00 0.00 0.00 83 1015.0
20260905065231 26 360 6.4 14.5 0.00 0.00 0.00 83 1015.2
20260905065117 26 360 6.4 14.5 0.00 0.00 0.00 83 1015.2
20260905065038 26 360 6.4 14.5 0.00 0.00 0.00 83 1015.1
20260905064918 26 360 6.4 14.5 0.00 0.00 0.00 83 1015.2
20260905064818 26 360 6.4 16.1 0.00 0.00 0.00 83 1015.1
20260905064719 26 360 8.0 16.1 0.00 0.00 0.00 83 1015.2
20260905064639 26 360 8.0 16.1 0.00 0.00 0.00 83 1015.1
20260905064600 26 360 8.0 19.3 0.00 0.00 0.00 83 1015.1
20260905064419 26 360 8.0 19.3 0.00 0.00 0.00 83 1015.1
20260905064323 26 360 8.0 19.3 0.00 0.00 0.00 83 1015.1
20260905064223 26 360 8.0 19.3 0.00 0.00 0.00 83 1015.1
20260905064123 26 360 8.0 19.3 0.00 0.00 0.00 82 1015.1
20260905064024 26 360 9.7 19.3 0.00 0.00 0.00 82 1015.1
20260905063945 26 360 9.7 19.3 0.00 0.00 0.00 82 1015.1
20260905063824 26 360 9.7 19.3 0.00 0.00 0.00 82 1015.1
20260905063725 26 360 11.3 19.3 0.00 0.00 0.00 82 1015.1
20260905063630 26 360 11.3 19.3 0.00 0.00 0.00 82 1015.1
20260905063531 26 360 9.7 17.7 0.00 0.00 0.00 82 1015.1
20260905063450 26 360 9.7 17.7 0.00 0.00 0.00 82 1015.1
20260905063329 26 360 8.0 17.7 0.00 0.00 0.00 82 1015.0
20260905063230 26 360 9.7 17.7 0.00 0.00 0.00 82 1015.0
20260905063150 26 360 11.3 17.7 0.00 0.00 0.00 82 1015.1
20260905063029 26 360 11.3 17.7 0.00 0.00 0.00 82 1015.0
20260905062929 26 360 9.7 17.7 0.00 0.00 0.00 82 1015.1
20260905062835 26 360 9.7 17.7 0.00 0.00 0.00 82 1015.1
20260905062755 26 360 8.0 17.7 0.00 0.00 0.00 82 1015.1
20260905062635 26 360 8.0 19.3 0.00 0.00 0.00 82 1015.1
20260905062516 26 360 8.0 19.3 0.00 0.00 0.00 82 1015.1
20260905062438 26 360 9.7 19.3 0.00 0.00 0.00 82 1015.1
20260905062317 26 360 9.7 19.3 0.00 0.00 0.00 82 1015.1
20260905062217 26 360 11.3 19.3 0.00 0.00 0.00 82 1015.0
20260905062120 26 360 11.3 19.3 0.00 0.00 0.00 82 1015.1
20260905062021 26 360 9.7 19.3 0.00 0.00 0.00 82 1015.1
20260905061921 26 360 9.7 19.3 0.00 0.00 0.00 82 1015.1
20260905061821 26 360 8.0 14.5 0.00 0.00 0.00 82 1015.1
20260905061721 26 360 8.0 16.1 0.00 0.00 0.00 82 1015.1
20260905061622 26 360 9.7 16.1 0.00 0.00 0.00 82 1015.1
20260905061543 26 360 9.7 16.1 0.00 0.00 0.00 82 1015.2
20260905061442 26 360 8.0 16.1 0.00 0.00 0.00 82 1015.1
20260905061326 26 360 8.0 16.1 0.00 0.00 0.00 81 1015.2
20260905061226 26 360 8.0 16.1 0.00 0.00 0.00 81 1015.2
20260905061126 26 360 9.7 17.7 0.00 0.00 0.00 81 1015.1
20260905061027 26 360 8.0 17.7 0.00 0.00 0.00 81 1015.2
20260905060949 26 360 9.7 17.7 0.00 0.00 0.00 81 1015.1
20260905060828 26 360 8.0 17.7 0.00 0.00 0.00 81 1015.2
20260905060730 26 360 8.0 17.7 0.00 0.00 0.00 81 1015.1
20260905060635 26 360 8.0 19.3 0.00 0.00 0.00 81 1015.1
20260905060534 26 360 9.7 19.3 0.00 0.00 0.00 81 1015.1
20260905060455 26 360 9.7 19.3 0.00 0.00 0.00 81 1015.1
20260905060334 26 360 11.3 19.3 0.00 0.00 0.00 81 1015.1
20260905060235 26 360 9.7 19.3 0.00 0.00 0.00 81 1015.0
20260905060136 26 360 9.7 19.3 0.00 0.00 0.00 81 1015.1
20260905060055 26 360 9.7 19.3 0.00 0.00 0.00 81 1015.1
20260905055920 26 360 11.3 19.3 0.00 0.00 0.00 81 1015.1
20260905055841 26 360 11.3 19.3 0.00 0.00 0.00 81 1015.1
20260905055720 26 360 9.7 17.7 0.00 0.00 0.00 81 1015.1
20260905055620 26 360 9.7 17.7 0.00 0.00 0.00 81 1015.1
20260905055520 26 360 11.3 17.7 0.00 0.00 0.00 81 1015.1
20260905055421 26 360 11.3 17.7 0.00 0.00 0.00 81 1015.1
20260905055322 26 360 9.7 17.7 0.00 0.00 0.00 81 1015.1
20260905055242 26 360 9.7 17.7 0.00 0.00 0.00 81 1015.1
20260905055126 26 360 9.7 17.7 0.00 0.00 0.00 81 1015.1
20260905055028 26 360 11.3 17.7 0.00 0.00 0.00 81 1015.2
20260905054930 26 360 11.3 17.7 0.00 0.00 0.00 81 1015.2
20260905054830 26 360 11.3 17.7 0.00 0.00 0.00 81 1015.1
20260905054731 26 360 12.9 17.7 0.00 0.00 0.00 81 1015.1
20260905054651 26 360 11.3 17.7 0.00 0.00 0.00 81 1015.1
20260905054530 26 360 9.7 16.1 0.00 0.00 0.00 81 1015.2
20260905054451 26 360 9.7 16.1 0.00 0.00 0.00 80 1015.1
20260905054355 26 360 11.3 16.1 0.00 0.00 0.00 80 1015.1
20260905054233 26 360 11.3 16.1 0.00 0.00 0.00 80 1015.1
20260905054134 26 360 9.7 19.3 0.00 0.00 0.00 80 1015.1
20260905054015 26 360 8.0 19.3 0.00 0.00 0.00 80 1015.2
20260905053916 26 360 9.7 19.3 0.00 0.00 0.00 80 1015.1
20260905053816 26 360 9.7 19.3 0.00 0.00 0.00 80 1015.1
20260905053721 27 360 9.7 19.3 0.00 0.00 0.00 80 1015.1
20260905053622 27 360 11.3 19.3 0.00 0.00 0.00 80 1015.1
20260905053523 27 360 11.3 19.3 0.00 0.00 0.00 80 1015.1
20260905053423 27 360 12.9 19.3 0.00 0.00 0.00 80 1015.1
20260905053343 27 360 12.9 19.3 0.00 0.00 0.00 80 1015.0
20260905053223 27 360 12.9 19.3 0.00 0.00 0.00 80 1015.0
20260905053124 27 360 12.9 19.3 0.00 0.00 0.00 80 1015.1
20260905053029 27 360 12.9 17.7 0.00 0.00 0.00 80 1015.1
20260905052930 27 360 12.9 17.7 0.00 0.00 0.00 80 1015.1
20260905052832 27 360 11.3 17.7 0.00 0.00 0.00 80 1015.1
20260905052731 27 360 9.7 17.7 0.00 0.00 0.00 79 1015.1
20260905052632 27 360 9.7 17.7 0.00 0.00 0.00 79 1015.1
20260905052533 27 360 11.3 20.9 0.00 0.00 0.00 79 1015.1
20260905052419 27 360 11.3 20.9 0.00 0.00 0.00 79 1015.1
20260905052318 27 360 9.7 20.9 0.00 0.00 0.00 79 1015.2
20260905052219 27 360 11.3 20.9 0.00 0.00 0.00 79 1015.2
20260905052120 27 360 11.3 20.9 0.00 0.00 0.00 79 1015.2
20260905052020 27 360 11.3 20.9 0.00 0.00 0.00 79 1015.2
20260905051920 27 360 11.3 20.9 0.00 0.00 0.00 79 1015.2
20260905051841 27 360 11.3 20.9 0.00 0.00 0.00 79 1015.2
20260905051724 27 360 11.3 20.9 0.00 0.00 0.00 79 1015.2
20260905051645 27 360 11.3 19.3 0.00 0.00 0.00 79 1015.3
20260905051524 27 360 9.7 16.1 0.00 0.00 0.00 79 1015.3
20260905051425 27 360 9.7 16.1 0.00 0.00 0.00 79 1015.2
20260905051326 27 360 8.0 16.1 0.00 0.00 0.00 79 1015.3
20260905051226 27 360 8.0 16.1 0.00 0.00 0.00 79 1015.3
20260905051127 27 360 8.0 19.3 0.00 0.00 0.00 79 1015.3
20260905051026 27 360 9.7 19.3 0.00 0.00 0.00 79 1015.3
20260905050930 27 360 9.7 19.3 0.00 0.00 0.00 79 1015.3
20260905050830 27 360 9.7 19.3 0.00 0.00 0.00 79 1015.3
20260905050730 27 360 8.0 19.3 0.00 0.00 0.00 78 1015.2
20260905050651 27 360 9.7 19.3 0.00 0.00 0.00 78 1015.2
20260905050530 27 360 9.7 19.3 0.00 0.00 0.00 78 1015.3
20260905050431 27 360 11.3 19.3 0.00 0.00 0.00 78 1015.2
20260905050330 27 360 11.3 19.3 0.00 0.00 0.00 78 1015.2
20260905050231 27 360 11.3 20.9 0.00 0.00 0.00 78 1015.2
20260905050115 27 360 9.7 20.9 0.00 0.00 0.00 78 1015.2
20260905050036 27 360 9.7 20.9 0.00 0.00 0.00 78 1015.2
20260905045930 27 360 8.0 20.9 0.00 0.00 0.00 78 1015.3
20260905045832 27 360 9.7 20.9 0.00 0.00 0.00 78 1015.2
20260905045751 27 360 11.3 20.9 0.00 0.00 0.00 78 1015.3
20260905045630 27 360 12.9 20.9 0.00 0.00 0.00 78 1015.3
20260905045531 27 360 12.9 20.9 0.00 0.00 0.00 78 1015.3
20260905045435 27 360 12.9 20.9 0.00 0.00 0.00 78 1015.2
20260905045316 27 360 9.7 20.9 0.00 0.00 0.00 78 1015.2
20260905045217 27 360 8.0 20.9 0.00 0.00 0.00 78 1015.2
20260905045117 27 360 8.0 20.9 0.00 0.00 0.00 77 1015.1
20260905045018 27 360 6.4 17.7 0.00 0.00 0.00 77 1015.1
20260905044939 27 360 8.0 20.9 0.00 0.00 0.00 77 1015.1
20260905044823 27 360 8.0 20.9 0.00 0.00 0.00 77 1015.2
20260905044723 27 360 9.7 20.9 0.00 0.00 0.00 77 1015.1
20260905044623 27 360 11.3 20.9 0.00 0.00 0.00 77 1015.1
20260905044545 27 360 12.9 20.9 0.00 0.00 0.00 77 1015.1
20260905044424 27 360 12.9 20.9 0.00 0.00 0.00 77 1015.1
20260905044325 27 360 12.9 20.9 0.00 0.00 0.00 77 1015.1
20260905044226 27 360 12.9 20.9 0.00 0.00 0.00 77 1015.1
20260905044146 27 360 12.9 24.1 0.00 0.00 0.00 77 1015.1
20260905044030 27 360 12.9 24.1 0.00 0.00 0.00 76 1015.1
20260905043930 27 360 11.3 29.0 0.00 0.00 0.00 76 1015.0
20260905043832 27 360 12.9 29.0 0.00 0.00 0.00 76 1015.1
20260905043732 27 360 12.9 29.0 0.00 0.00 0.00 76 1015.1
20260905043632 27 360 14.5 29.0 0.00 0.00 0.00 76 1015.1
20260905043532 27 360 11.3 29.0 0.00 0.00 0.00 76 1015.1
20260905043454 27 360 11.3 29.0 0.00 0.00 0.00 76 1015.2
20260905043317 27 360 16.1 29.0 0.00 0.00 0.00 76 1015.2
20260905043218 27 360 16.1 29.0 0.00 0.00 0.00 76 1015.1
20260905043119 27 360 16.1 29.0 0.00 0.00 0.00 76 1015.2
20260905043018 27 360 12.9 25.7 0.00 0.00 0.00 76 1015.2
20260905042920 27 360 11.3 17.7 0.00 0.00 0.00 76 1015.2
20260905042823 27 360 11.3 17.7 0.00 0.00 0.00 76 1015.2
20260905042722 27 360 11.3 20.9 0.00 0.00 0.00 76 1015.2
20260905042627 27 360 11.3 20.9 0.00 0.00 0.00 76 1015.2
20260905042528 27 360 11.3 20.9 0.00 0.00 0.00 76 1015.1
20260905042429 27 360 12.9 20.9 0.00 0.00 0.00 76 1015.1
20260905042330 27 360 12.9 20.9 0.00 0.00 0.00 76 1015.1
20260905042230 27 360 11.3 20.9 0.00 0.00 0.00 76 1015.1
20260905042150 27 360 12.9 22.5 0.00 0.00 0.00 76 1015.1
20260905042029 27 360 12.9 22.5 0.00 0.00 0.00 75 1015.0
20260905041934 27 360 12.9 22.5 0.00 0.00 0.00 75 1015.0
20260905041833 27 360 9.7 27.4 0.00 0.00 0.00 75 1015.0
20260905041734 27 360 8.0 27.4 0.00 0.00 0.00 76 1015.0
20260905041634 27 360 9.7 27.4 0.00 0.00 0.00 76 1015.1
20260905041535 27 360 12.9 27.4 0.00 0.00 0.00 75 1015.0
20260905041435 27 360 14.5 27.4 0.00 0.00 0.00 75 1015.0
20260905041320 27 360 16.1 27.4 0.00 0.00 0.00 75 1015.0
20260905041221 27 360 14.5 27.4 0.00 0.00 0.00 75 1015.1
20260905041123 27 360 12.9 27.4 0.00 0.00 0.00 75 1015.0
20260905041024 27 360 12.9 27.4 0.00 0.00 0.00 75 1015.1
20260905040924 27 360 11.3 22.5 0.00 0.00 0.00 75 1015.1
20260905040825 27 360 14.5 22.5 0.00 0.00 0.00 75 1015.1
20260905040725 27 360 14.5 27.4 0.00 0.00 0.00 75 1015.1
20260905040628 27 360 12.9 27.4 0.00 0.00 0.00 75 1015.1
20260905040529 27 360 12.9 27.4 0.00 0.00 0.00 75 1015.1
20260905040430 27 360 11.3 27.4 0.00 0.00 0.00 75 1015.1
20260905040330 27 360 11.3 27.4 0.00 0.00 0.00 75 1015.1
20260905040232 27 360 14.5 27.4 0.00 0.00 0.00 75 1015.1
20260905040131 27 360 14.5 27.4 0.00 0.00 0.00 75 1015.2
20260905040016 27 360 14.5 27.4 0.00 0.00 0.00 75 1015.1
20260905035917 27 360 12.9 27.4 0.00 0.00 0.00 75 1015.2
20260905035817 27 360 11.3 27.4 0.00 0.00 0.00 75 1015.1
20260905035738 27 360 11.3 27.4 0.00 0.00 0.00 74 1015.2
20260905035616 27 360 12.9 27.4 0.00 0.00 0.00 75 1015.1
20260905035518 28 360 14.5 27.4 0.00 0.00 0.00 74 1015.1
20260905035419 28 360 14.5 27.4 0.00 0.00 0.00 74 1015.1
20260905035340 28 360 14.5 27.4 0.00 0.00 0.00 74 1015.0
20260905035224 28 360 16.1 27.4 0.00 0.00 0.00 74 1015.0
20260905035124 28 360 14.5 27.4 0.00 0.00 0.00 74 1015.1
20260905035045 27 360 14.5 27.4 0.00 0.00 0.00 74 1015.0
20260905034924 28 360 12.9 19.3 0.00 0.00 0.00 74 1015.1
20260905034824 28 360 12.9 20.9 0.00 0.00 0.00 74 1015.1
20260905034725 28 360 12.9 20.9 0.00 0.00 0.00 74 1015.1
20260905034624 28 360 12.9 20.9 0.00 0.00 0.00 74 1015.1
20260905034529 28 360 11.3 20.9 0.00 0.00 0.00 74 1015.1
20260905034451 28 360 11.3 20.9 0.00 0.00 0.00 74 1015.1
20260905034331 28 360 12.9 20.9 0.00 0.00 0.00 74 1015.0
20260905034231 28 360 12.9 20.9 0.00 0.00 0.00 74 1015.0
20260905034131 28 360 14.5 20.9 0.00 0.00 0.00 74 1015.0
20260905034032 28 360 14.5 20.9 0.00 0.00 0.00 74 1015.0
20260905033933 28 360 12.9 20.9 0.00 0.00 0.00 74 1015.1
20260905033837 28 360 12.9 20.9 0.00 0.00 0.00 74 1015.1
20260905033717 28 360 12.9 20.9 0.00 0.00 0.00 73 1015.1
20260905033617 28 360 14.5 24.1 0.00 0.00 0.00 73 1015.1
20260905033538 28 360 14.5 24.1 0.00 0.00 0.00 73 1015.0
20260905033417 28 360 14.5 24.1 0.00 0.00 0.00 73 1015.0
20260905033318 28 360 14.5 24.1 0.00 0.00 0.00 73 1015.1
20260905033239 28 360 14.5 24.1 0.00 0.00 0.00 73 1015.0
20260905033119 28 360 12.9 24.1 0.00 0.00 0.00 73 1015.0
20260905033044 28 360 12.9 24.1 0.00 0.00 0.00 73 1015.0
20260905032924 28 360 12.9 24.1 0.00 0.00 0.00 73 1015.1
20260905032826 28 360 12.9 24.1 0.00 0.00 0.00 73 1015.0
20260905032726 28 360 12.9 24.1 0.00 0.00 0.00 73 1014.9
20260905032627 28 360 12.9 24.1 0.00 0.00 0.00 73 1014.9
20260905032549 28 360 14.5 24.1 0.00 0.00 0.00 73 1014.9
20260905032429 28 360 14.5 24.1 0.00 0.00 0.00 73 1015.0
20260905032333 28 360 14.5 24.1 0.00 0.00 0.00 73 1014.8
20260905032253 28 360 16.1 24.1 0.00 0.00 0.00 73 1015.0
20260905032133 28 161 16.1 24.1 0.00 0.00 0.00 73 1014.9
20260905032033 28 360 16.1 22.5 0.00 0.00 0.00 73 1014.9
20260905031933 28 360 14.5 22.5 0.00 0.00 0.00 73 1014.9
20260905031834 28 360 12.9 22.5 0.00 0.00 0.00 73 1014.8
20260905031735 28 360 11.3 22.5 0.00 0.00 0.00 72 1015.3
20260905031619 28 150 9.7 22.5 0.00 0.00 0.00 72 1015.0
20260905031519 28 360 11.3 22.5 0.00 0.00 0.00 72 1015.0
20260905031440 28 360 12.9 22.5 0.00 0.00 0.00 72 1015.0
20260905031320 28 360 14.5 22.5 0.00 0.00 0.00 72 1015.0
20260905031220 28 360 16.1 22.5 0.00 0.00 0.00 72 1014.9
20260905031121 28 360 14.5 22.5 0.00 0.00 0.00 72 1014.9
20260905031022 28 360 12.9 22.5 0.00 0.00 0.00 72 1014.9
20260905030925 28 360 12.9 22.5 0.00 0.00 0.00 72 1015.0
20260905030826 28 360 12.9 22.5 0.00 0.00 0.00 72 1015.0
20260905030727 28 360 12.9 22.5 0.00 0.00 0.00 72 1014.9
20260905030627 28 360 14.5 22.5 0.00 0.00 0.00 72 1014.9
20260905030528 28 360 16.1 22.5 0.00 0.00 0.00 72 1014.8
20260905030428 28 360 16.1 22.5 0.00 0.00 0.00 72 1014.9
20260905030332 28 360 12.9 22.5 0.00 0.00 0.00 72 1014.9
20260905030233 28 360 11.3 20.9 0.00 0.00 0.00 72 1014.8
20260905030133 28 360 9.7 20.9 0.00 0.00 0.00 71 1014.8
20260905030034 28 360 12.9 20.9 0.00 0.00 0.00 71 1014.9
20260905025934 28 360 12.9 20.9 0.00 0.00 0.00 71 1014.9
20260905025836 28 360 14.5 20.9 0.00 0.00 0.00 71 1014.9
20260905025720 28 360 14.5 20.9 0.00 0.00 0.00 71 1014.8
20260905025640 28 360 14.5 22.5 0.00 0.00 0.00 70 1014.8
20260905025520 28 360 14.5 22.5 0.00 0.00 0.00 70 1014.8
20260905025420 28 360 12.9 22.5 0.00 0.00 0.00 70 1014.7
20260905025320 28 360 14.5 22.5 0.00 0.00 0.00 70 1014.8
20260905025221 28 360 14.5 22.5 0.00 0.00 0.00 70 1014.7
20260905025121 28 360 14.5 22.5 0.00 0.00 0.00 70 1014.7
20260905025025 28 360 14.5 22.5 0.00 0.00 0.00 70 1014.7
20260905024926 28 360 14.5 22.5 0.00 0.00 0.00 70 1014.7
20260905024829 28 360 16.1 22.5 0.00 0.00 0.00 70 1014.7
20260905024728 28 360 14.5 19.3 0.00 0.00 0.00 70 1014.7
20260905024629 28 360 12.9 19.3 0.00 0.00 0.00 70 1014.7
20260905024528 28 360 11.3 19.3 0.00 0.00 0.00 70 1014.7
20260905024429 28 360 9.7 17.7 0.00 0.00 0.00 69 1014.7
20260905024334 28 360 11.3 17.7 0.00 0.00 0.00 69 1014.7
20260905024255 28 360 11.3 17.7 0.00 0.00 0.00 69 1014.6
20260905024135 28 360 9.7 14.5 0.00 0.00 0.00 69 1014.6
20260905024034 28 360 8.0 14.5 0.00 0.00 0.00 69 1014.5
20260905023934 28 360 6.4 9.7 0.00 0.00 0.00 69 1014.6
20260905023833 28 360 6.4 9.7 0.00 0.00 0.00 69 1014.6
20260905023735 28 360 4.8 9.7 0.00 0.00 0.00 69 1014.6
20260905023633 28 360 4.8 9.7 0.00 0.00 0.00 69 1014.7
20260905023518 28 360 4.8 9.7 0.00 0.00 0.00 69 1014.7
20260905023419 28 360 4.8 9.7 0.00 0.00 0.00 69 1014.6
20260905023319 28 360 4.8 9.7 0.00 0.00 0.00 69 1014.6
20260905023219 28 360 4.8 9.7 0.00 0.00 0.00 69 1014.7
20260905023118 28 360 4.8 9.7 0.00 0.00 0.00 69 1014.6
20260905023040 28 360 4.8 9.7 0.00 0.00 0.00 69 1014.6
20260905022939 28 360 4.8 9.7 0.00 0.00 0.00 69 1014.6
20260905022819 28 360 4.8 9.7 0.00 0.00 0.00 69 1014.6
20260905022723 28 360 4.8 8.0 0.00 0.00 0.00 69 1014.5
20260905022624 28 360 4.8 8.0 0.00 0.00 0.00 69 1014.5
20260905022524 28 360 4.8 9.7 0.00 0.00 0.00 69 1014.5
20260905022425 28 360 4.8 9.7 0.00 0.00 0.00 68 1014.5
20260905022345 28 360 4.8 9.7 0.00 0.00 0.00 68 1014.5
20260905022224 28 360 4.8 9.7 0.00 0.00 0.00 68 1014.4
20260905022126 28 360 4.8 9.7 0.00 0.00 0.00 68 1014.4
20260905022030 28 360 4.8 9.7 0.00 0.00 0.00 68 1014.4
20260905021930 28 360 4.8 9.7 0.00 0.00 0.00 68 1014.3
20260905021831 28 360 4.8 9.7 0.00 0.00 0.00 68 1014.3
20260905021732 28 360 4.8 9.7 0.00 0.00 0.00 68 1014.3
20260905021632 28 360 4.8 8.0 0.00 0.00 0.00 68 1014.3
20260905021552 28 360 4.8 9.7 0.00 0.00 0.00 68 1014.3
20260905021417 28 360 4.8 9.7 0.00 0.00 0.00 68 1014.3
20260905021318 28 360 4.8 9.7 0.00 0.00 0.00 68 1014.3
20260905021238 28 360 4.8 9.7 0.00 0.00 0.00 68 1014.3
20260905021118 28 360 6.4 9.7 0.00 0.00 0.00 68 1014.3
20260905021038 28 360 6.4 9.7 0.00 0.00 0.00 68 1014.2
20260905020918 28 161 6.4 14.5 0.00 0.00 0.00 68 1014.2
20260905020839 28 360 6.4 14.5 0.00 0.00 0.00 68 1014.2
20260905020719 28 360 6.4 14.5 0.00 0.00 0.00 68 1014.2
20260905020623 28 360 4.8 14.5 0.00 0.00 0.00 68 1014.1
20260905020523 28 360 4.8 14.5 0.00 0.00 0.00 67 1014.1
20260905020423 28 360 4.8 16.1 0.00 0.00 0.00 67 1014.0
20260905020323 28 360 6.4 16.1 0.00 0.00 0.00 67 1014.1
20260905020224 28 360 6.4 16.1 0.00 0.00 0.00 67 1014.0
20260905020125 28 360 6.4 16.1 0.00 0.00 0.00 67 1014.0
20260905020026 28 360 8.0 16.1 0.00 0.00 0.00 67 1014.0
20260905015927 28 360 8.0 16.1 0.00 0.00 0.00 67 1014.0
20260905015853 28 360 9.7 17.7 0.00 0.00 0.00 67 1014.0
20260905015732 28 360 9.7 17.7 0.00 0.00 0.00 67 1014.0
20260905015631 28 360 9.7 17.7 0.00 0.00 0.00 67 1014.0
20260905015532 28 360 8.0 19.3 0.00 0.00 0.00 67 1014.1
20260905015433 28 360 9.7 19.3 0.00 0.00 0.00 67 1014.2
20260905015333 28 360 9.7 19.3 0.00 0.00 0.00 66 1014.1
20260905015218 29 360 11.3 19.3 0.00 0.00 0.00 66 1014.1
20260905015119 29 360 11.3 19.3 0.00 0.00 0.00 66 1014.1
20260905015019 29 360 11.3 19.3 0.00 0.00 0.00 66 1014.1
20260905014921 29 360 11.3 19.3 0.00 0.00 0.00 66 1014.1
20260905014821 29 360 12.9 19.3 0.00 0.00 0.00 66 1014.2
20260905014721 29 360 12.9 19.3 0.00 0.00 0.00 66 1014.1
20260905014642 29 360 11.3 19.3 0.00 0.00 0.00 66 1014.1
20260905014542 29 360 9.7 19.3 0.00 0.00 0.00 66 1014.1
20260905014426 29 360 9.7 19.3 0.00 0.00 0.00 66 1014.0
20260905014327 29 360 11.3 19.3 0.00 0.00 0.00 66 1014.1
20260905014247 29 360 11.3 19.3 0.00 0.00 0.00 66 1014.0
20260905014147 29 360 9.7 17.7 0.00 0.00 0.00 66 1014.0
20260905014046 29 360 9.7 17.7 0.00 0.00 0.00 66 1014.0
20260905013925 29 360 9.7 17.7 0.00 0.00 0.00 66 1014.0
20260905013826 29 360 11.3 19.3 0.00 0.00 0.00 66 1014.0
20260905013727 29 360 12.9 19.3 0.00 0.00 0.00 66 1014.0
20260905013632 29 360 12.9 19.3 0.00 0.00 0.00 66 1013.9
20260905013533 29 360 12.9 20.9 0.00 0.00 0.00 66 1013.9
20260905013454 29 360 12.9 20.9 0.00 0.00 0.00 66 1014.0
20260905013335 29 360 12.9 20.9 0.00 0.00 0.00 66 1014.0
20260905013235 29 360 12.9 20.9 0.00 0.00 0.00 66 1013.9
20260905013156 29 360 14.5 22.5 0.00 0.00 0.00 66 1013.9
20260905013055 29 360 12.9 22.5 0.00 0.00 0.00 66 1013.9
20260905012920 29 360 12.9 22.5 0.00 0.00 0.00 66 1013.9
20260905012841 29 360 12.9 22.5 0.00 0.00 0.00 66 1013.9
20260905012719 29 360 14.5 22.5 0.00 0.00 0.00 66 1013.8
20260905012620 29 360 16.1 22.5 0.00 0.00 0.00 66 1013.9
20260905012520 29 360 14.5 22.5 0.00 0.00 0.00 66 1013.9
20260905012421 29 360 14.5 22.5 0.00 0.00 0.00 66 1013.9
20260905012322 29 360 12.9 22.5 0.00 0.00 0.00 66 1013.8
20260905012227 29 360 14.5 22.5 0.00 0.00 0.00 66 1013.9
20260905012127 29 360 14.5 22.5 0.00 0.00 0.00 66 1013.8
20260905012028 29 360 12.9 22.5 0.00 0.00 0.00 67 1013.9
20260905011928 29 360 12.9 22.5 0.00 0.00 0.00 67 1013.8
20260905011848 29 360 11.3 22.5 0.00 0.00 0.00 66 1013.9
20260905011728 30 360 14.5 22.5 0.00 0.00 0.00 66 1013.9
20260905011628 30 360 12.9 20.9 0.00 0.00 0.00 66 1013.9
20260905011549 30 360 12.9 20.9 0.00 0.00 0.00 66 1013.8
20260905011433 30 360 12.9 20.9 0.00 0.00 0.00 66 1013.8
20260905011354 30 360 12.9 20.9 0.00 0.00 0.00 66 1013.9
20260905011233 30 360 12.9 20.9 0.00 0.00 0.00 66 1013.8
20260905011153 30 360 14.5 20.9 0.00 0.00 0.00 66 1013.8
20260905011033 30 360 14.5 19.3 0.00 0.00 0.00 66 1013.8
20260905010933 30 360 12.9 17.7 0.00 0.00 0.00 66 1013.8
20260905010834 30 360 11.3 17.7 0.00 0.00 0.00 66 1013.8
20260905010718 30 360 9.7 17.7 0.00 0.00 0.00 66 1013.8
20260905010616 30 360 9.7 17.7 0.00 0.00 0.00 66 1013.8
20260905010536 30 360 9.7 17.7 0.00 0.00 0.00 65 1013.8
20260905010456 30 360 8.0 25.7 0.00 0.00 0.00 66 1013.8
20260905010356 30 360 8.0 25.7 0.00 0.00 0.00 65 1013.7
20260905010236 30 360 9.7 25.7 0.00 0.00 0.00 65 1013.8
20260905010156 30 360 11.3 25.7 0.00 0.00 0.00 65 1013.8
20260905010035 30 360 11.3 25.7 0.00 0.00 0.00 65 1013.7
20260905005920 30 360 12.9 25.7 0.00 0.00 0.00 65 1013.7
20260905005822 30 360 14.5 25.7 0.00 0.00 0.00 65 1013.8
20260905005721 30 360 16.1 25.7 0.00 0.00 0.00 65 1013.7
20260905005620 30 360 17.7 25.7 0.00 0.00 0.00 65 1013.8
20260905005521 30 360 16.1 24.1 0.00 0.00 0.00 65 1013.6
20260905005422 30 360 16.1 25.7 0.00 0.00 0.00 65 1013.7
20260905005321 30 360 14.5 27.4 0.00 0.00 0.00 64 1013.7
20260905005222 30 360 16.1 27.4 0.00 0.00 0.00 64 1013.7
20260905005126 30 360 16.1 27.4 0.00 0.00 0.00 64 1013.7
20260905005027 30 360 16.1 27.4 0.00 0.00 0.00 64 1013.7
20260905004926 30 360 12.9 27.4 0.00 0.00 0.00 64 1013.7
20260905004827 30 360 14.5 27.4 0.00 0.00 0.00 64 1013.7
20260905004727 30 360 16.1 27.4 0.00 0.00 0.00 64 1013.5
20260905004648 30 360 17.7 27.4 0.00 0.00 0.00 64 1013.6
20260905004527 30 360 16.1 27.4 0.00 0.00 0.00 64 1013.6
20260905004427 30 360 14.5 22.5 0.00 0.00 0.00 64 1013.6
20260905004332 30 360 14.5 22.5 0.00 0.00 0.00 63 1013.6